Wetterdaten: Donnerstag, 04.09.2014
Datum Zeit Temp. Aussen +5cm Feuchte Auss Luftdruck Regen Sonnenschein Regendauer UV Solar Windben
04.09.2014 00:00 17,6 C 15,6 C 82 % 1020,8 hPa 0,0 l/m 0 min 0 min 0,0 UV-I 0 W/m 0,0 km/h (0 Bft)
04.09.2014 00:02 17,6 C 15,6 C 82 % 1020,7 hPa 0,0 l/m 0 min 0 min 0,0 UV-I 0 W/m 0,0 km/h (0 Bft)
04.09.2014 00:05 17,6 C 15,6 C 82 % 1020,7 hPa 0,0 l/m 0 min 0 min 0,0 UV-I 0 W/m 2,7 km/h (1 Bft)
04.09.2014 00:06 17,6 C 15,6 C 82 % 1020,7 hPa 0,0 l/m 0 min 0 min 0,0 UV-I 0 W/m 0,0 km/h (0 Bft)
04.09.2014 00:08 17,5 C 15,6 C 83 % 1020,7 hPa 0,0 l/m 0 min 0 min 0,0 UV-I 0 W/m 0,0 km/h (0 Bft)
04.09.2014 00:10 17,5 C 15,6 C 83 % 1020,7 hPa 0,0 l/m 0 min 0 min 0,0 UV-I 0 W/m 2,7 km/h (1 Bft)
04.09.2014 00:12 17,5 C 15,6 C 83 % 1020,7 hPa 0,0 l/m 0 min 0 min 0,0 UV-I 0 W/m 10,9 km/h (2 Bft)
04.09.2014 00:14 17,5 C 15,6 C 83 % 1020,6 hPa 0,0 l/m 0 min 0 min 0,0 UV-I 0 W/m 10,9 km/h (2 Bft)
04.09.2014 00:16 17,4 C 15,6 C 83 % 1020,6 hPa 0,0 l/m 0 min 0 min 0,0 UV-I 0 W/m 19,0 km/h (3 Bft)
04.09.2014 00:18 17,4 C 15,6 C 83 % 1020,6 hPa 0,0 l/m 0 min 0 min 0,0 UV-I 0 W/m 13,6 km/h (3 Bft)
04.09.2014 00:20 17,4 C 15,6 C 83 % 1020,6 hPa 0,0 l/m 0 min 0 min 0,0 UV-I 0 W/m 10,9 km/h (2 Bft)
04.09.2014 00:22 17,4 C 15,6 C 83 % 1020,6 hPa 0,0 l/m 0 min 0 min 0,0 UV-I 0 W/m 8,2 km/h (2 Bft)
04.09.2014 00:24 17,4 C 15,6 C 83 % 1020,6 hPa 0,0 l/m 0 min 0 min 0,0 UV-I 0 W/m 16,4 km/h (3 Bft)
04.09.2014 00:26 17,4 C 15,6 C 84 % 1020,5 hPa 0,0 l/m 0 min 0 min 0,0 UV-I 0 W/m 10,9 km/h (2 Bft)
04.09.2014 00:28 17,4 C 15,6 C 84 % 1020,5 hPa 0,0 l/m 0 min 0 min 0,0 UV-I 0 W/m 10,9 km/h (2 Bft)
04.09.2014 00:30 17,3 C 15,6 C 84 % 1020,5 hPa 0,0 l/m 0 min 0 min 0,0 UV-I 0 W/m 16,4 km/h (3 Bft)
04.09.2014 00:32 17,3 C 15,6 C 84 % 1020,6 hPa 0,0 l/m 0 min 0 min 0,0 UV-I 0 W/m 13,6 km/h (3 Bft)
04.09.2014 00:34 17,3 C 15,6 C 84 % 1020,6 hPa 0,0 l/m 0 min 0 min 0,0 UV-I 0 W/m 16,4 km/h (3 Bft)
04.09.2014 00:36 17,3 C 15,6 C 84 % 1020,5 hPa 0,0 l/m 0 min 0 min 0,0 UV-I 0 W/m 13,6 km/h (3 Bft)
04.09.2014 00:38 17,3 C 15,6 C 84 % 1020,5 hPa 0,0 l/m 0 min 0 min 0,0 UV-I 0 W/m 13,6 km/h (3 Bft)
04.09.2014 00:40 17,3 C 15,6 C 84 % 1020,5 hPa 0,0 l/m 0 min 0 min 0,0 UV-I 0 W/m 21,7 km/h (4 Bft)
04.09.2014 00:42 17,3 C 15,6 C 84 % 1020,5 hPa 0,0 l/m 0 min 0 min 0,0 UV-I 0 W/m 13,6 km/h (3 Bft)
04.09.2014 00:44 17,3 C 15,6 C 84 % 1020,5 hPa 0,0 l/m 0 min 0 min 0,0 UV-I 0 W/m 13,6 km/h (3 Bft)
04.09.2014 00:46 17,3 C 15,6 C 84 % 1020,6 hPa 0,0 l/m 0 min 0 min 0,0 UV-I 0 W/m 13,6 km/h (3 Bft)
04.09.2014 00:48 17,3 C 15,6 C 84 % 1020,6 hPa 0,0 l/m 0 min 0 min 0,0 UV-I 0 W/m 8,2 km/h (2 Bft)
04.09.2014 00:50 17,2 C 15,6 C 84 % 1020,6 hPa 0,0 l/m 0 min 0 min 0,0 UV-I 0 W/m 16,4 km/h (3 Bft)
04.09.2014 00:52 17,2 C 15,6 C 84 % 1020,6 hPa 0,0 l/m 0 min 0 min 0,0 UV-I 0 W/m 10,9 km/h (2 Bft)
04.09.2014 00:54 17,3 C 15,6 C 84 % 1020,6 hPa 0,0 l/m 0 min 0 min 0,0 UV-I 0 W/m 13,6 km/h (3 Bft)
04.09.2014 00:56 17,2 C 15,6 C 84 % 1020,6 hPa 0,0 l/m 0 min 0 min 0,0 UV-I 0 W/m 16,4 km/h (3 Bft)
04.09.2014 00:58 17,3 C 15,6 C 84 % 1020,6 hPa 0,0 l/m 0 min 0 min 0,0 UV-I 0 W/m 10,9 km/h (2 Bft)
04.09.2014 01:00 17,3 C 15,6 C 84 % 1020,6 hPa 0,0 l/m 0 min 0 min 0,0 UV-I 0 W/m 19,0 km/h (3 Bft)
04.09.2014 01:02 17,3 C 15,6 C 84 % 1020,7 hPa 0,0 l/m 0 min 0 min 0,0 UV-I 0 W/m 21,7 km/h (4 Bft)
04.09.2014 01:04 17,3 C 15,6 C 84 % 1020,6 hPa 0,0 l/m 0 min 0 min 0,0 UV-I 0 W/m 8,2 km/h (2 Bft)
04.09.2014 01:06 17,3 C 15,6 C 84 % 1020,7 hPa 0,0 l/m 0 min 0 min 0,0 UV-I 0 W/m 19,0 km/h (3 Bft)
04.09.2014 01:08 17,3 C 15,6 C 84 % 1020,6 hPa 0,0 l/m 0 min 0 min 0,0 UV-I 0 W/m 16,4 km/h (3 Bft)
04.09.2014 01:10 17,3 C 16,1 C 84 % 1020,6 hPa 0,0 l/m 0 min 0 min 0,0 UV-I 0 W/m 10,9 km/h (2 Bft)
04.09.2014 01:12 17,3 C 15,6 C 84 % 1020,6 hPa 0,0 l/m 0 min 0 min 0,0 UV-I 0 W/m 10,9 km/h (2 Bft)
04.09.2014 01:14 17,3 C 15,6 C 83 % 1020,5 hPa 0,0 l/m 0 min 0 min 0,0 UV-I 0 W/m 16,4 km/h (3 Bft)
04.09.2014 01:16 17,3 C 16,1 C 84 % 1020,5 hPa 0,0 l/m 0 min 0 min 0,0 UV-I 0 W/m 5,5 km/h (1 Bft)
04.09.2014 01:18 17,3 C 15,6 C 83 % 1020,5 hPa 0,0 l/m 0 min 0 min 0,0 UV-I 0 W/m 16,4 km/h (3 Bft)
04.09.2014 01:20 17,3 C 15,6 C 83 % 1020,6 hPa 0,0 l/m 0 min 0 min 0,0 UV-I 0 W/m 13,6 km/h (3 Bft)
04.09.2014 01:22 17,3 C 15,6 C 83 % 1020,6 hPa 0,0 l/m 0 min 0 min 0,0 UV-I 0 W/m 10,9 km/h (2 Bft)
04.09.2014 01:24 17,3 C 15,6 C 83 % 1020,6 hPa 0,0 l/m 0 min 0 min 0,0 UV-I 0 W/m 0,0 km/h (0 Bft)
04.09.2014 01:26 17,3 C 15,6 C 83 % 1020,6 hPa 0,0 l/m 0 min 0 min 0,0 UV-I 0 W/m 5,5 km/h (1 Bft)
04.09.2014 01:28 17,3 C 16,1 C 83 % 1020,6 hPa 0,0 l/m 0 min 0 min 0,0 UV-I 0 W/m 10,9 km/h (2 Bft)
04.09.2014 01:30 17,3 C 15,6 C 83 % 1020,6 hPa 0,0 l/m 0 min 0 min 0,0 UV-I 0 W/m 5,5 km/h (1 Bft)
04.09.2014 01:32 17,3 C 15,6 C 83 % 1020,5 hPa 0,0 l/m 0 min 0 min 0,0 UV-I 0 W/m 0,0 km/h (0 Bft)
04.09.2014 01:34 17,3 C 15,6 C 83 % 1020,6 hPa 0,0 l/m 0 min 0 min 0,0 UV-I 0 W/m 0,0 km/h (0 Bft)
04.09.2014 01:36 17,3 C 15,6 C 83 % 1020,5 hPa 0,0 l/m 0 min 0 min 0,0 UV-I 0 W/m 10,9 km/h (2 Bft)
04.09.2014 01:38 17,3 C 15,6 C 83 % 1020,5 hPa 0,0 l/m 0 min 0 min 0,0 UV-I 0 W/m 0,0 km/h (0 Bft)
04.09.2014 01:40 17,3 C 16,1 C 83 % 1020,5 hPa 0,0 l/m 0 min 0 min 0,0 UV-I 0 W/m 0,0 km/h (0 Bft)
04.09.2014 01:42 17,3 C 16,1 C 83 % 1020,5 hPa 0,0 l/m 0 min 0 min 0,0 UV-I 0 W/m 0,0 km/h (0 Bft)
04.09.2014 01:44 17,3 C 15,6 C 83 % 1020,4 hPa 0,0 l/m 0 min 0 min 0,0 UV-I 0 W/m 0,0 km/h (0 Bft)
04.09.2014 01:46 17,3 C 15,6 C 83 % 1020,4 hPa 0,0 l/m 0 min 0 min 0,0 UV-I 0 W/m 0,0 km/h (0 Bft)
04.09.2014 01:48 17,3 C 15,6 C 83 % 1020,4 hPa 0,0 l/m 0 min 0 min 0,0 UV-I 0 W/m 0,0 km/h (0 Bft)
04.09.2014 01:50 17,3 C 15,6 C 83 % 1020,4 hPa 0,0 l/m 0 min 0 min 0,0 UV-I 0 W/m 0,0 km/h (0 Bft)
04.09.2014 01:52 17,3 C 15,6 C 83 % 1020,4 hPa 0,0 l/m 0 min 0 min 0,0 UV-I 0 W/m 0,0 km/h (0 Bft)
04.09.2014 01:54 17,3 C 15,6 C 83 % 1020,4 hPa 0,0 l/m 0 min 0 min 0,0 UV-I 0 W/m 0,0 km/h (0 Bft)
04.09.2014 01:56 17,3 C 15,6 C 83 % 1020,4 hPa 0,0 l/m 0 min 0 min 0,0 UV-I 0 W/m 0,0 km/h (0 Bft)
04.09.2014 01:58 17,3 C 15,6 C 83 % 1020,4 hPa 0,0 l/m 0 min 0 min 0,0 UV-I 0 W/m 0,0 km/h (0 Bft)
04.09.2014 02:00 17,3 C 15,6 C 83 % 1020,4 hPa 0,0 l/m 0 min 0 min 0,0 UV-I 0 W/m 0,0 km/h (0 Bft)
04.09.2014 02:02 17,3 C 15,6 C 83 % 1020,4 hPa 0,0 l/m 0 min 0 min 0,0 UV-I 0 W/m 0,0 km/h (0 Bft)
04.09.2014 02:04 17,3 C 15,6 C 83 % 1020,3 hPa 0,0 l/m 0 min 0 min 0,0 UV-I 0 W/m 2,7 km/h (1 Bft)
04.09.2014 02:06 17,3 C 15,6 C 83 % 1020,4 hPa 0,0 l/m 0 min 0 min 0,0 UV-I 0 W/m 0,0 km/h (0 Bft)
04.09.2014 02:08 17,3 C 15,6 C 83 % 1020,3 hPa 0,0 l/m 0 min 0 min 0,0 UV-I 0 W/m 0,0 km/h (0 Bft)
04.09.2014 02:10 17,3 C 15,6 C 83 % 1020,3 hPa 0,0 l/m 0 min 0 min 0,0 UV-I 0 W/m 10,9 km/h (2 Bft)
04.09.2014 02:12 17,3 C 15,6 C 83 % 1020,3 hPa 0,0 l/m 0 min 0 min 0,0 UV-I 0 W/m 10,9 km/h (2 Bft)
04.09.2014 02:14 17,3 C 15,6 C 83 % 1020,3 hPa 0,0 l/m 0 min 0 min 0,0 UV-I 0 W/m 10,9 km/h (2 Bft)
04.09.2014 02:16 17,3 C 15,6 C 83 % 1020,2 hPa 0,0 l/m 0 min 0 min 0,0 UV-I 0 W/m 10,9 km/h (2 Bft)
04.09.2014 02:18 17,2 C 15,6 C 83 % 1020,1 hPa 0,0 l/m 0 min 0 min 0,0 UV-I 0 W/m 13,6 km/h (3 Bft)
04.09.2014 02:20 17,2 C 15,6 C 83 % 1020,3 hPa 0,0 l/m 0 min 0 min 0,0 UV-I 0 W/m 10,9 km/h (2 Bft)
04.09.2014 02:22 17,2 C 15,6 C 83 % 1020,2 hPa 0,0 l/m 0 min 0 min 0,0 UV-I 0 W/m 8,2 km/h (2 Bft)
04.09.2014 02:24 17,2 C 15,6 C 82 % 1020,2 hPa 0,0 l/m 0 min 0 min 0,0 UV-I 0 W/m 0,0 km/h (0 Bft)
04.09.2014 02:26 17,2 C 15,6 C 82 % 1020,3 hPa 0,0 l/m 0 min 0 min 0,0 UV-I 0 W/m 0,0 km/h (0 Bft)
04.09.2014 02:28 17,2 C 15,6 C 82 % 1020,2 hPa 0,0 l/m 0 min 0 min 0,0 UV-I 0 W/m 2,7 km/h (1 Bft)
04.09.2014 02:30 17,2 C 15,6 C 82 % 1020,2 hPa 0,0 l/m 0 min 0 min 0,0 UV-I 0 W/m 5,5 km/h (1 Bft)
04.09.2014 02:32 17,2 C 15,6 C 82 % 1020,2 hPa 0,0 l/m 0 min 0 min 0,0 UV-I 0 W/m 10,9 km/h (2 Bft)
04.09.2014 02:34 17,2 C 15,6 C 82 % 1020,3 hPa 0,0 l/m 0 min 0 min 0,0 UV-I 0 W/m 13,6 km/h (3 Bft)
04.09.2014 02:36 17,2 C 15,6 C 82 % 1020,3 hPa 0,0 l/m 0 min 0 min 0,0 UV-I 0 W/m 16,4 km/h (3 Bft)
04.09.2014 02:38 17,2 C 15,6 C 82 % 1020,3 hPa 0,0 l/m 0 min 0 min 0,0 UV-I 0 W/m 13,6 km/h (3 Bft)
04.09.2014 02:40 17,2 C 15,6 C 82 % 1020,3 hPa 0,0 l/m 0 min 0 min 0,0 UV-I 0 W/m 2,7 km/h (1 Bft)
04.09.2014 02:42 17,2 C 15,6 C 82 % 1020,3 hPa 0,0 l/m 0 min 0 min 0,0 UV-I 0 W/m 2,7 km/h (1 Bft)
04.09.2014 02:44 17,2 C 15,6 C 82 % 1020,3 hPa 0,0 l/m 0 min 0 min 0,0 UV-I 0 W/m 8,2 km/h (2 Bft)
04.09.2014 02:46 17,2 C 15,6 C 82 % 1020,3 hPa 0,0 l/m 0 min 0 min 0,0 UV-I 0 W/m 0,0 km/h (0 Bft)
04.09.2014 02:48 17,1 C 15,6 C 82 % 1020,2 hPa 0,0 l/m 0 min 0 min 0,0 UV-I 0 W/m 0,0 km/h (0 Bft)
04.09.2014 02:50 17,1 C 15,6 C 82 % 1020,3 hPa 0,0 l/m 0 min 0 min 0,0 UV-I 0 W/m 0,0 km/h (0 Bft)
04.09.2014 02:52 17,1 C 15,6 C 82 % 1020,1 hPa 0,0 l/m 0 min 0 min 0,0 UV-I 0 W/m 0,0 km/h (0 Bft)
04.09.2014 02:54 17,1 C 15,6 C 82 % 1020,2 hPa 0,0 l/m 0 min 0 min 0,0 UV-I 0 W/m 0,0 km/h (0 Bft)
04.09.2014 02:56 17,1 C 15,0 C 82 % 1020,2 hPa 0,0 l/m 0 min 0 min 0,0 UV-I 0 W/m 0,0 km/h (0 Bft)
04.09.2014 02:58 17,1 C 15,0 C 82 % 1020,1 hPa 0,0 l/m 0 min 0 min 0,0 UV-I 0 W/m 0,0 km/h (0 Bft)
04.09.2014 03:00 17,1 C 15,0 C 83 % 1020,2 hPa 0,0 l/m 0 min 0 min 0,0 UV-I 0 W/m 0,0 km/h (0 Bft)
04.09.2014 03:02 17,1 C 15,0 C 83 % 1020,2 hPa 0,0 l/m 0 min 0 min 0,0 UV-I 0 W/m 0,0 km/h (0 Bft)
04.09.2014 03:04 17,1 C 15,0 C 83 % 1020,2 hPa 0,0 l/m 0 min 0 min 0,0 UV-I 0 W/m 0,0 km/h (0 Bft)
04.09.2014 03:06 17,1 C 15,0 C 83 % 1020,1 hPa 0,0 l/m 0 min 0 min 0,0 UV-I 0 W/m 0,0 km/h (0 Bft)
04.09.2014 03:08 17,1 C 15,0 C 83 % 1020,1 hPa 0,0 l/m 0 min 0 min 0,0 UV-I 0 W/m 0,0 km/h (0 Bft)
04.09.2014 03:10 17,1 C 15,0 C 83 % 1020,1 hPa 0,0 l/m 0 min 0 min 0,0 UV-I 0 W/m 8,2 km/h (2 Bft)
04.09.2014 03:12 17,1 C 15,0 C 84 % 1020,0 hPa 0,0 l/m 0 min 0 min 0,0 UV-I 0 W/m 0,0 km/h (0 Bft)
04.09.2014 03:14 17,1 C 15,0 C 84 % 1020,1 hPa 0,0 l/m 0 min 0 min 0,0 UV-I 0 W/m 0,0 km/h (0 Bft)
04.09.2014 03:16 17,1 C 15,0 C 84 % 1020,0 hPa 0,0 l/m 0 min 0 min 0,0 UV-I 0 W/m 2,7 km/h (1 Bft)
04.09.2014 03:18 17,1 C 15,0 C 84 % 1020,0 hPa 0,0 l/m 0 min 0 min 0,0 UV-I 0 W/m 0,0 km/h (0 Bft)
04.09.2014 03:20 17,0 C 15,0 C 84 % 1020,0 hPa 0,0 l/m 0 min 0 min 0,0 UV-I 0 W/m 0,0 km/h (0 Bft)
04.09.2014 03:22 17,0 C 15,0 C 84 % 1020,0 hPa 0,0 l/m 0 min 0 min 0,0 UV-I 0 W/m 2,7 km/h (1 Bft)
04.09.2014 03:24 17,0 C 15,0 C 84 % 1020,0 hPa 0,0 l/m 0 min 0 min 0,0 UV-I 0 W/m 0,0 km/h (0 Bft)
04.09.2014 03:26 17,0 C 15,0 C 84 % 1019,9 hPa 0,0 l/m 0 min 0 min 0,0 UV-I 0 W/m 8,2 km/h (2 Bft)
04.09.2014 03:28 16,9 C 14,4 C 85 % 1019,9 hPa 0,0 l/m 0 min 0 min 0,0 UV-I 0 W/m 2,7 km/h (1 Bft)
04.09.2014 03:30 16,9 C 14,4 C 85 % 1019,9 hPa 0,0 l/m 0 min 0 min 0,0 UV-I 0 W/m 2,7 km/h (1 Bft)
04.09.2014 03:32 16,9 C 14,4 C 85 % 1019,9 hPa 0,0 l/m 0 min 0 min 0,0 UV-I 0 W/m 0,0 km/h (0 Bft)
04.09.2014 03:34 16,9 C 13,9 C 85 % 1019,9 hPa 0,0 l/m 0 min 0 min 0,0 UV-I 0 W/m 2,7 km/h (1 Bft)
04.09.2014 03:36 16,8 C 13,9 C 85 % 1019,9 hPa 0,0 l/m 0 min 0 min 0,0 UV-I 0 W/m 10,9 km/h (2 Bft)
04.09.2014 03:38 16,8 C 13,9 C 85 % 1019,8 hPa 0,0 l/m 0 min 0 min 0,0 UV-I 0 W/m 8,2 km/h (2 Bft)
04.09.2014 03:40 16,7 C 13,9 C 85 % 1019,8 hPa 0,0 l/m 0 min 0 min 0,0 UV-I 0 W/m 5,5 km/h (1 Bft)
04.09.2014 03:42 16,7 C 13,9 C 85 % 1019,8 hPa 0,0 l/m 0 min 0 min 0,0 UV-I 0 W/m 0,0 km/h (0 Bft)
04.09.2014 03:44 16,7 C 13,9 C 85 % 1019,8 hPa 0,0 l/m 0 min 0 min 0,0 UV-I 0 W/m 0,0 km/h (0 Bft)
04.09.2014 03:46 16,6 C 13,9 C 85 % 1019,8 hPa 0,0 l/m 0 min 0 min 0,0 UV-I 0 W/m 2,7 km/h (1 Bft)
04.09.2014 03:48 16,6 C 13,9 C 85 % 1019,8 hPa 0,0 l/m 0 min 0 min 0,0 UV-I 0 W/m 10,9 km/h (2 Bft)
04.09.2014 03:50 16,5 C 13,3 C 85 % 1019,7 hPa 0,0 l/m 0 min 0 min 0,0 UV-I 0 W/m 10,9 km/h (2 Bft)
04.09.2014 03:52 16,4 C 13,3 C 85 % 1019,8 hPa 0,0 l/m 0 min 0 min 0,0 UV-I 0 W/m 0,0 km/h (0 Bft)
04.09.2014 03:54 16,4 C 13,3 C 85 % 1019,8 hPa 0,0 l/m 0 min 0 min 0,0 UV-I 0 W/m 0,0 km/h (0 Bft)
04.09.2014 03:56 16,3 C 13,3 C 85 % 1019,8 hPa 0,0 l/m 0 min 0 min 0,0 UV-I 0 W/m 0,0 km/h (0 Bft)
04.09.2014 03:58 16,3 C 13,3 C 86 % 1019,8 hPa 0,0 l/m 0 min 0 min 0,0 UV-I 0 W/m 0,0 km/h (0 Bft)
04.09.2014 04:00 16,3 C 13,3 C 86 % 1019,8 hPa 0,0 l/m 0 min 0 min 0,0 UV-I 0 W/m 0,0 km/h (0 Bft)
04.09.2014 04:02 16,2 C 13,3 C 86 % 1019,7 hPa 0,0 l/m 0 min 0 min 0,0 UV-I 0 W/m 0,0 km/h (0 Bft)
04.09.2014 04:04 16,2 C 12,8 C 86 % 1019,7 hPa 0,0 l/m 0 min 0 min 0,0 UV-I 0 W/m 0,0 km/h (0 Bft)
04.09.2014 04:06 16,1 C 12,8 C 86 % 1019,7 hPa 0,0 l/m 0 min 0 min 0,0 UV-I 0 W/m 0,0 km/h (0 Bft)
04.09.2014 04:08 16,1 C 12,8 C 86 % 1019,8 hPa 0,0 l/m 0 min 0 min 0,0 UV-I 0 W/m 0,0 km/h (0 Bft)
04.09.2014 04:10 16,0 C 12,8 C 86 % 1019,7 hPa 0,0 l/m 0 min 0 min 0,0 UV-I 0 W/m 0,0 km/h (0 Bft)
04.09.2014 04:12 15,9 C 12,8 C 86 % 1019,7 hPa 0,0 l/m 0 min 0 min 0,0 UV-I 0 W/m 2,7 km/h (1 Bft)
04.09.2014 04:14 15,9 C 12,8 C 86 % 1019,7 hPa 0,0 l/m 0 min 0 min 0,0 UV-I 0 W/m 0,0 km/h (0 Bft)
04.09.2014 04:16 15,8 C 12,8 C 86 % 1019,7 hPa 0,0 l/m 0 min 0 min 0,0 UV-I 0 W/m 2,7 km/h (1 Bft)
04.09.2014 04:18 15,8 C 12,8 C 86 % 1019,7 hPa 0,0 l/m 0 min 0 min 0,0 UV-I 0 W/m 0,0 km/h (0 Bft)
04.09.2014 04:20 15,8 C 12,8 C 86 % 1019,7 hPa 0,0 l/m 0 min 0 min 0,0 UV-I 0 W/m 8,2 km/h (2 Bft)
04.09.2014 04:22 15,7 C 12,8 C 86 % 1019,6 hPa 0,0 l/m 0 min 0 min 0,0 UV-I 0 W/m 0,0 km/h (0 Bft)
04.09.2014 04:24 15,7 C 12,8 C 86 % 1019,6 hPa 0,0 l/m 0 min 0 min 0,0 UV-I 0 W/m 0,0 km/h (0 Bft)
04.09.2014 04:26 15,6 C 12,8 C 87 % 1019,7 hPa 0,0 l/m 0 min 0 min 0,0 UV-I 0 W/m 0,0 km/h (0 Bft)
04.09.2014 04:28 15,6 C 12,8 C 87 % 1019,6 hPa 0,0 l/m 0 min 0 min 0,0 UV-I 0 W/m 0,0 km/h (0 Bft)
04.09.2014 04:30 15,5 C 12,8 C 87 % 1019,7 hPa 0,0 l/m 0 min 0 min 0,0 UV-I 0 W/m 2,7 km/h (1 Bft)
04.09.2014 04:32 15,5 C 12,8 C 87 % 1019,7 hPa 0,0 l/m 0 min 0 min 0,0 UV-I 0 W/m 0,0 km/h (0 Bft)
04.09.2014 04:34 15,4 C 12,8 C 87 % 1019,7 hPa 0,0 l/m 0 min 0 min 0,0 UV-I 0 W/m 0,0 km/h (0 Bft)
04.09.2014 04:36 15,4 C 12,8 C 87 % 1019,7 hPa 0,0 l/m 0 min 0 min 0,0 UV-I 0 W/m 2,7 km/h (1 Bft)
04.09.2014 04:38 15,3 C 12,8 C 87 % 1019,7 hPa 0,0 l/m 0 min 0 min 0,0 UV-I 0 W/m 0,0 km/h (0 Bft)
04.09.2014 04:40 15,3 C 12,8 C 88 % 1019,7 hPa 0,0 l/m 0 min 0 min 0,0 UV-I 0 W/m 0,0 km/h (0 Bft)
04.09.2014 04:42 15,3 C 12,2 C 88 % 1019,7 hPa 0,0 l/m 0 min 0 min 0,0 UV-I 0 W/m 0,0 km/h (0 Bft)
04.09.2014 04:44 15,2 C 12,8 C 88 % 1019,6 hPa 0,0 l/m 0 min 0 min 0,0 UV-I 0 W/m 0,0 km/h (0 Bft)
04.09.2014 04:46 15,2 C 12,2 C 88 % 1019,7 hPa 0,0 l/m 0 min 0 min 0,0 UV-I 0 W/m 2,7 km/h (1 Bft)
04.09.2014 04:48 15,1 C 12,2 C 88 % 1019,6 hPa 0,0 l/m 0 min 0 min 0,0 UV-I 0 W/m 0,0 km/h (0 Bft)
04.09.2014 04:50 15,1 C 12,2 C 88 % 1019,7 hPa 0,0 l/m 0 min 0 min 0,0 UV-I 0 W/m 2,7 km/h (1 Bft)
04.09.2014 04:52 15,1 C 12,2 C 88 % 1019,6 hPa 0,0 l/m 0 min 0 min 0,0 UV-I 0 W/m 8,2 km/h (2 Bft)
04.09.2014 04:54 15,0 C 12,2 C 88 % 1019,7 hPa 0,0 l/m 0 min 0 min 0,0 UV-I 0 W/m 2,7 km/h (1 Bft)
04.09.2014 04:56 14,9 C 12,2 C 88 % 1019,6 hPa 0,0 l/m 0 min 0 min 0,0 UV-I 0 W/m 0,0 km/h (0 Bft)
04.09.2014 04:58 14,9 C 12,2 C 89 % 1019,6 hPa 0,0 l/m 0 min 0 min 0,0 UV-I 0 W/m 0,0 km/h (0 Bft)
04.09.2014 05:00 14,9 C 12,2 C 89 % 1019,6 hPa 0,0 l/m 0 min 0 min 0,0 UV-I 0 W/m 0,0 km/h (0 Bft)
04.09.2014 05:02 14,8 C 12,2 C 89 % 1019,5 hPa 0,0 l/m 0 min 0 min 0,0 UV-I 0 W/m 0,0 km/h (0 Bft)
04.09.2014 05:04 14,8 C 12,2 C 89 % 1019,6 hPa 0,0 l/m 0 min 0 min 0,0 UV-I 0 W/m 0,0 km/h (0 Bft)
04.09.2014 05:06 14,8 C 12,2 C 89 % 1019,6 hPa 0,0 l/m 0 min 0 min 0,0 UV-I 0 W/m 0,0 km/h (0 Bft)
04.09.2014 05:08 14,7 C 12,2 C 89 % 1019,6 hPa 0,0 l/m 0 min 0 min 0,0 UV-I 0 W/m 0,0 km/h (0 Bft)
04.09.2014 05:10 14,7 C 12,2 C 89 % 1019,6 hPa 0,0 l/m 0 min 0 min 0,0 UV-I 0 W/m 2,7 km/h (1 Bft)
04.09.2014 05:12 14,7 C 12,2 C 89 % 1019,5 hPa 0,0 l/m 0 min 0 min 0,0 UV-I 0 W/m 0,0 km/h (0 Bft)
04.09.2014 05:14 14,6 C 12,2 C 89 % 1019,5 hPa 0,0 l/m 0 min 0 min 0,0 UV-I 0 W/m 0,0 km/h (0 Bft)
04.09.2014 05:16 14,6 C 12,2 C 89 % 1019,5 hPa 0,0 l/m 0 min 0 min 0,0 UV-I 0 W/m 8,2 km/h (2 Bft)
04.09.2014 05:18 14,6 C 12,2 C 89 % 1019,5 hPa 0,0 l/m 0 min 0 min 0,0 UV-I 0 W/m 8,2 km/h (2 Bft)
04.09.2014 05:20 14,5 C 12,2 C 89 % 1019,5 hPa 0,0 l/m 0 min 0 min 0,0 UV-I 0 W/m 8,2 km/h (2 Bft)
04.09.2014 05:22 14,5 C 12,2 C 90 % 1019,4 hPa 0,0 l/m 0 min 0 min 0,0 UV-I 0 W/m 0,0 km/h (0 Bft)
04.09.2014 05:24 14,4 C 12,2 C 90 % 1019,5 hPa 0,0 l/m 0 min 0 min 0,0 UV-I 0 W/m 0,0 km/h (0 Bft)
04.09.2014 05:26 14,4 C 12,2 C 90 % 1019,5 hPa 0,0 l/m 0 min 0 min 0,0 UV-I 0 W/m 0,0 km/h (0 Bft)
04.09.2014 05:28 14,4 C 12,2 C 90 % 1019,5 hPa 0,0 l/m 0 min 0 min 0,0 UV-I 0 W/m 8,2 km/h (2 Bft)
04.09.2014 05:30 14,3 C 12,2 C 90 % 1019,5 hPa 0,0 l/m 0 min 0 min 0,0 UV-I 0 W/m 2,7 km/h (1 Bft)
04.09.2014 05:32 14,3 C 12,2 C 90 % 1019,5 hPa 0,0 l/m 0 min 0 min 0,0 UV-I 0 W/m 0,0 km/h (0 Bft)
04.09.2014 05:34 14,3 C 12,2 C 90 % 1019,5 hPa 0,0 l/m 0 min 0 min 0,0 UV-I 0 W/m 0,0 km/h (0 Bft)
04.09.2014 05:36 14,2 C 12,2 C 90 % 1019,5 hPa 0,0 l/m 0 min 0 min 0,0 UV-I 0 W/m 0,0 km/h (0 Bft)
04.09.2014 05:38 14,2 C 12,2 C 90 % 1019,4 hPa 0,0 l/m 0 min 0 min 0,0 UV-I 0 W/m 0,0 km/h (0 Bft)
04.09.2014 05:40 14,2 C 12,2 C 90 % 1019,4 hPa 0,0 l/m 0 min 0 min 0,0 UV-I 0 W/m 0,0 km/h (0 Bft)
04.09.2014 05:42 14,2 C 11,7 C 90 % 1019,5 hPa 0,0 l/m 0 min 0 min 0,0 UV-I 0 W/m 0,0 km/h (0 Bft)
04.09.2014 05:44 14,2 C 11,7 C 90 % 1019,4 hPa 0,0 l/m 0 min 0 min 0,0 UV-I 0 W/m 0,0 km/h (0 Bft)
04.09.2014 05:46 14,2 C 11,7 C 90 % 1019,4 hPa 0,0 l/m 0 min 0 min 0,0 UV-I 0 W/m 0,0 km/h (0 Bft)
04.09.2014 05:48 14,2 C 11,7 C 90 % 1019,4 hPa 0,0 l/m 0 min 0 min 0,0 UV-I 0 W/m 0,0 km/h (0 Bft)
04.09.2014 05:50 14,2 C 11,7 C 90 % 1019,4 hPa 0,0 l/m 0 min 0 min 0,0 UV-I 0 W/m 0,0 km/h (0 Bft)
04.09.2014 05:52 14,2 C 11,7 C 90 % 1019,4 hPa 0,0 l/m 0 min 0 min 0,0 UV-I 0 W/m 0,0 km/h (0 Bft)
04.09.2014 05:54 14,1 C 11,7 C 90 % 1019,3 hPa 0,0 l/m 0 min 0 min 0,0 UV-I 0 W/m 0,0 km/h (0 Bft)
04.09.2014 05:56 14,1 C 11,7 C 90 % 1019,3 hPa 0,0 l/m 0 min 0 min 0,0 UV-I 0 W/m 2,7 km/h (1 Bft)
04.09.2014 05:58 14,1 C 11,7 C 91 % 1019,3 hPa 0,0 l/m 0 min 0 min 0,0 UV-I 0 W/m 8,2 km/h (2 Bft)
04.09.2014 06:00 14,0 C 11,7 C 91 % 1019,3 hPa 0,0 l/m 0 min 0 min 0,0 UV-I 0 W/m 8,2 km/h (2 Bft)
04.09.2014 06:02 14,0 C 11,7 C 91 % 1019,3 hPa 0,0 l/m 0 min 0 min 0,0 UV-I 0 W/m 10,9 km/h (2 Bft)
04.09.2014 06:06 13,9 C 11,7 C 91 % 1019,3 hPa 0,0 l/m 0 min 0 min 0,0 UV-I 0 W/m 2,7 km/h (1 Bft)
04.09.2014 06:08 13,9 C 11,7 C 91 % 1019,3 hPa 0,0 l/m 0 min 0 min 0,0 UV-I 0 W/m 0,0 km/h (0 Bft)
04.09.2014 06:10 13,9 C 11,7 C 91 % 1019,3 hPa 0,0 l/m 0 min 0 min 0,0 UV-I 0 W/m 0,0 km/h (0 Bft)
04.09.2014 06:12 13,8 C 11,7 C 91 % 1019,3 hPa 0,0 l/m 0 min 0 min 0,0 UV-I 0 W/m 0,0 km/h (0 Bft)
04.09.2014 06:14 13,8 C 11,7 C 91 % 1019,2 hPa 0,0 l/m 0 min 0 min 0,0 UV-I 0 W/m 0,0 km/h (0 Bft)
04.09.2014 06:16 13,8 C 11,7 C 91 % 1019,3 hPa 0,0 l/m 0 min 0 min 0,0 UV-I 0 W/m 0,0 km/h (0 Bft)
04.09.2014 06:18 13,8 C 11,7 C 91 % 1019,3 hPa 0,0 l/m 0 min 0 min 0,0 UV-I 0 W/m 0,0 km/h (0 Bft)
04.09.2014 06:20 13,8 C 11,7 C 91 % 1019,3 hPa 0,0 l/m 0 min 0 min 0,0 UV-I 0 W/m 0,0 km/h (0 Bft)
04.09.2014 06:22 13,7 C 11,7 C 91 % 1019,3 hPa 0,0 l/m 0 min 0 min 0,0 UV-I 0 W/m 0,0 km/h (0 Bft)
04.09.2014 06:24 13,7 C 11,7 C 92 % 1019,4 hPa 0,0 l/m 0 min 0 min 0,0 UV-I 0 W/m 0,0 km/h (0 Bft)
04.09.2014 06:26 13,7 C 11,7 C 92 % 1019,3 hPa 0,0 l/m 0 min 0 min 0,0 UV-I 0 W/m 0,0 km/h (0 Bft)
04.09.2014 06:28 13,7 C 11,7 C 92 % 1019,3 hPa 0,0 l/m 0 min 0 min 0,0 UV-I 0 W/m 0,0 km/h (0 Bft)
04.09.2014 06:30 13,6 C 11,7 C 92 % 1019,3 hPa 0,0 l/m 0 min 0 min 0,0 UV-I 0 W/m 0,0 km/h (0 Bft)
04.09.2014 06:32 13,6 C 11,7 C 91 % 1019,3 hPa 0,0 l/m 0 min 0 min 0,0 UV-I 0 W/m 0,0 km/h (0 Bft)
04.09.2014 06:34 13,6 C 11,7 C 91 % 1019,3 hPa 0,0 l/m 0 min 0 min 0,0 UV-I 0 W/m 0,0 km/h (0 Bft)
04.09.2014 06:36 13,6 C 11,7 C 91 % 1019,3 hPa 0,0 l/m 0 min 0 min 0,0 UV-I 0 W/m 2,7 km/h (1 Bft)
04.09.2014 06:38 13,6 C 11,1 C 92 % 1019,3 hPa 0,0 l/m 0 min 0 min 0,0 UV-I 0 W/m 0,0 km/h (0 Bft)
04.09.2014 06:40 13,5 C 11,1 C 92 % 1019,2 hPa 0,0 l/m 0 min 0 min 0,0 UV-I 0 W/m 0,0 km/h (0 Bft)
04.09.2014 06:42 13,5 C 11,7 C 92 % 1019,2 hPa 0,0 l/m 0 min 0 min 0,0 UV-I 0 W/m 2,7 km/h (1 Bft)
04.09.2014 06:44 13,5 C 11,1 C 92 % 1019,2 hPa 0,0 l/m 0 min 0 min 0,0 UV-I 0 W/m 0,0 km/h (0 Bft)
04.09.2014 06:46 13,4 C 11,1 C 92 % 1019,2 hPa 0,0 l/m 0 min 0 min 0,0 UV-I 0 W/m 0,0 km/h (0 Bft)
04.09.2014 06:48 13,4 C 11,1 C 92 % 1019,3 hPa 0,0 l/m 0 min 0 min 0,0 UV-I 0 W/m 0,0 km/h (0 Bft)
04.09.2014 06:50 13,4 C 11,1 C 92 % 1019,3 hPa 0,0 l/m 0 min 0 min 0,0 UV-I 0 W/m 0,0 km/h (0 Bft)
04.09.2014 06:52 13,4 C 11,1 C 92 % 1019,3 hPa 0,0 l/m 0 min 0 min 0,0 UV-I 0 W/m 0,0 km/h (0 Bft)
04.09.2014 06:54 13,3 C 11,1 C 92 % 1019,3 hPa 0,0 l/m 0 min 0 min 0,0 UV-I 0 W/m 0,0 km/h (0 Bft)
04.09.2014 06:56 13,3 C 11,1 C 92 % 1019,3 hPa 0,0 l/m 0 min 0 min 0,0 UV-I 0 W/m 0,0 km/h (0 Bft)
04.09.2014 06:58 13,3 C 11,1 C 92 % 1019,3 hPa 0,0 l/m 0 min 0 min 0,0 UV-I 0 W/m 0,0 km/h (0 Bft)
04.09.2014 07:00 13,3 C 11,1 C 92 % 1019,3 hPa 0,0 l/m 0 min 0 min 0,0 UV-I 0 W/m 0,0 km/h (0 Bft)
04.09.2014 07:02 13,3 C 11,1 C 92 % 1019,3 hPa 0,0 l/m 0 min 0 min 0,0 UV-I 0 W/m 0,0 km/h (0 Bft)
04.09.2014 07:04 13,2 C 11,1 C 92 % 1019,3 hPa 0,0 l/m 0 min 0 min 0,0 UV-I 0 W/m 0,0 km/h (0 Bft)
04.09.2014 07:06 13,2 C 11,1 C 92 % 1019,3 hPa 0,0 l/m 0 min 0 min 0,0 UV-I 0 W/m 0,0 km/h (0 Bft)
04.09.2014 07:08 13,2 C 11,1 C 92 % 1019,3 hPa 0,0 l/m 0 min 0 min 0,0 UV-I 0 W/m 8,2 km/h (2 Bft)
04.09.2014 07:10 13,2 C 11,1 C 92 % 1019,3 hPa 0,0 l/m 0 min 0 min 0,0 UV-I 0 W/m 5,5 km/h (1 Bft)
04.09.2014 07:12 13,2 C 11,1 C 92 % 1019,3 hPa 0,0 l/m 0 min 0 min 0,0 UV-I 0 W/m 0,0 km/h (0 Bft)
04.09.2014 07:14 13,2 C 11,1 C 92 % 1019,3 hPa 0,0 l/m 0 min 0 min 0,0 UV-I 0 W/m 2,7 km/h (1 Bft)
04.09.2014 07:16 13,2 C 11,1 C 92 % 1019,3 hPa 0,0 l/m 0 min 0 min 0,0 UV-I 0 W/m 0,0 km/h (0 Bft)
04.09.2014 07:18 13,1 C 11,1 C 92 % 1019,3 hPa 0,0 l/m 0 min 0 min 0,0 UV-I 0 W/m 0,0 km/h (0 Bft)
04.09.2014 07:20 13,1 C 11,1 C 92 % 1019,4 hPa 0,0 l/m 0 min 0 min 0,0 UV-I 0 W/m 0,0 km/h (0 Bft)
04.09.2014 07:22 13,1 C 11,1 C 92 % 1019,3 hPa 0,0 l/m 0 min 0 min 0,0 UV-I 0 W/m 0,0 km/h (0 Bft)
04.09.2014 07:24 13,1 C 11,1 C 92 % 1019,3 hPa 0,0 l/m 0 min 0 min 0,0 UV-I 0 W/m 0,0 km/h (0 Bft)
04.09.2014 07:26 13,1 C 11,1 C 92 % 1019,3 hPa 0,0 l/m 0 min 0 min 0,0 UV-I 0 W/m 0,0 km/h (0 Bft)
04.09.2014 07:28 13,1 C 11,7 C 93 % 1019,3 hPa 0,0 l/m 0 min 0 min 0,0 UV-I 0 W/m 0,0 km/h (0 Bft)
04.09.2014 07:30 13,1 C 11,7 C 93 % 1019,3 hPa 0,0 l/m 0 min 0 min 0,0 UV-I 0 W/m 0,0 km/h (0 Bft)
04.09.2014 07:32 13,1 C 11,7 C 93 % 1019,3 hPa 0,0 l/m 0 min 0 min 0,0 UV-I 0 W/m 0,0 km/h (0 Bft)
04.09.2014 07:34 13,1 C 11,7 C 93 % 1019,4 hPa 0,0 l/m 0 min 0 min 0,0 UV-I 0 W/m 0,0 km/h (0 Bft)
04.09.2014 07:36 13,1 C 11,7 C 93 % 1019,3 hPa 0,0 l/m 0 min 0 min 0,0 UV-I 0 W/m 2,7 km/h (1 Bft)
04.09.2014 07:38 13,1 C 11,7 C 93 % 1019,3 hPa 0,0 l/m 0 min 0 min 0,0 UV-I 0 W/m 0,0 km/h (0 Bft)
04.09.2014 07:40 13,1 C 11,7 C 93 % 1019,3 hPa 0,0 l/m 0 min 0 min 0,0 UV-I 0 W/m 0,0 km/h (0 Bft)
04.09.2014 07:42 13,1 C 11,7 C 93 % 1019,3 hPa 0,0 l/m 0 min 0 min 0,0 UV-I 0 W/m 0,0 km/h (0 Bft)
04.09.2014 07:44 13,1 C 11,7 C 93 % 1019,3 hPa 0,0 l/m 0 min 0 min 0,0 UV-I 0 W/m 0,0 km/h (0 Bft)
04.09.2014 07:46 13,1 C 11,7 C 93 % 1019,3 hPa 0,0 l/m 0 min 0 min 0,0 UV-I 0 W/m 0,0 km/h (0 Bft)
04.09.2014 07:48 13,1 C 11,7 C 93 % 1019,3 hPa 0,0 l/m 0 min 0 min 0,0 UV-I 0 W/m 0,0 km/h (0 Bft)
04.09.2014 07:50 13,1 C 11,7 C 93 % 1019,3 hPa 0,0 l/m 0 min 0 min 0,0 UV-I 0 W/m 2,7 km/h (1 Bft)
04.09.2014 07:52 13,1 C 11,7 C 93 % 1019,3 hPa 0,0 l/m 0 min 0 min 0,0 UV-I 0 W/m 0,0 km/h (0 Bft)
04.09.2014 07:54 13,1 C 12,2 C 93 % 1019,3 hPa 0,0 l/m 0 min 0 min 0,0 UV-I 0 W/m 0,0 km/h (0 Bft)
04.09.2014 07:56 13,1 C 12,2 C 93 % 1019,2 hPa 0,0 l/m 0 min 0 min 0,0 UV-I 0 W/m 0,0 km/h (0 Bft)
04.09.2014 07:58 13,1 C 12,2 C 93 % 1019,3 hPa 0,0 l/m 0 min 0 min 0,0 UV-I 0 W/m 0,0 km/h (0 Bft)
04.09.2014 08:00 13,1 C 12,2 C 93 % 1019,3 hPa 0,0 l/m 0 min 0 min 0,0 UV-I 0 W/m 0,0 km/h (0 Bft)
04.09.2014 08:02 13,2 C 12,8 C 93 % 1019,3 hPa 0,0 l/m 0 min 0 min 0,0 UV-I 0 W/m 0,0 km/h (0 Bft)
04.09.2014 08:04 13,2 C 12,8 C 94 % 1019,2 hPa 0,0 l/m 0 min 0 min 0,0 UV-I 0 W/m 0,0 km/h (0 Bft)
04.09.2014 08:06 13,2 C 12,8 C 94 % 1019,3 hPa 0,0 l/m 0 min 0 min 0,0 UV-I 0 W/m 0,0 km/h (0 Bft)
04.09.2014 08:08 13,3 C 12,8 C 94 % 1019,2 hPa 0,0 l/m 0 min 0 min 0,0 UV-I 0 W/m 0,0 km/h (0 Bft)
04.09.2014 08:10 13,3 C 12,8 C 94 % 1019,3 hPa 0,0 l/m 0 min 0 min 0,0 UV-I 0 W/m 0,0 km/h (0 Bft)
04.09.2014 08:12 13,3 C 12,8 C 94 % 1019,3 hPa 0,0 l/m 0 min 0 min 0,0 UV-I 0 W/m 0,0 km/h (0 Bft)
04.09.2014 08:14 13,4 C 13,3 C 94 % 1019,2 hPa 0,0 l/m 0 min 0 min 0,0 UV-I 0 W/m 0,0 km/h (0 Bft)
04.09.2014 08:16 13,4 C 13,3 C 94 % 1019,3 hPa 0,0 l/m 0 min 0 min 0,0 UV-I 0 W/m 0,0 km/h (0 Bft)
04.09.2014 08:18 13,4 C 13,3 C 94 % 1019,2 hPa 0,0 l/m 0 min 0 min 0,0 UV-I 0 W/m 0,0 km/h (0 Bft)
04.09.2014 08:20 13,5 C 13,3 C 94 % 1019,2 hPa 0,0 l/m 0 min 0 min 0,0 UV-I 0 W/m 0,0 km/h (0 Bft)
04.09.2014 08:22 13,6 C 13,3 C 94 % 1019,2 hPa 0,0 l/m 0 min 0 min 0,0 UV-I 0 W/m 0,0 km/h (0 Bft)
04.09.2014 08:24 13,6 C 13,3 C 94 % 1019,2 hPa 0,0 l/m 0 min 0 min 0,0 UV-I 0 W/m 0,0 km/h (0 Bft)
04.09.2014 08:26 13,6 C 13,9 C 94 % 1019,3 hPa 0,0 l/m 0 min 0 min 0,0 UV-I 0 W/m 0,0 km/h (0 Bft)
04.09.2014 08:28 13,7 C 13,9 C 95 % 1019,2 hPa 0,0 l/m 0 min 0 min 0,0 UV-I 0 W/m 0,0 km/h (0 Bft)
04.09.2014 08:30 13,7 C 13,9 C 95 % 1019,2 hPa 0,0 l/m 0 min 0 min 0,0 UV-I 0 W/m 2,7 km/h (1 Bft)
04.09.2014 08:32 13,8 C 13,9 C 95 % 1019,1 hPa 0,0 l/m 0 min 0 min 0,0 UV-I 0 W/m 0,0 km/h (0 Bft)
04.09.2014 08:34 13,8 C 13,9 C 95 % 1019,2 hPa 0,0 l/m 0 min 0 min 0,0 UV-I 0 W/m 0,0 km/h (0 Bft)
04.09.2014 08:36 13,9 C 13,9 C 95 % 1019,2 hPa 0,0 l/m 0 min 0 min 0,0 UV-I 0 W/m 0,0 km/h (0 Bft)
04.09.2014 08:38 13,9 C 13,9 C 95 % 1019,2 hPa 0,0 l/m 0 min 0 min 0,0 UV-I 0 W/m 2,7 km/h (1 Bft)
04.09.2014 08:40 14,1 C 14,4 C 95 % 1019,2 hPa 0,0 l/m 0 min 0 min 0,0 UV-I 0 W/m 0,0 km/h (0 Bft)
04.09.2014 08:42 14,2 C 14,4 C 95 % 1019,1 hPa 0,0 l/m 0 min 0 min 0,0 UV-I 0 W/m 0,0 km/h (0 Bft)
04.09.2014 08:44 14,2 C 14,4 C 95 % 1019,1 hPa 0,0 l/m 0 min 0 min 0,0 UV-I 0 W/m 2,7 km/h (1 Bft)
04.09.2014 08:46 14,2 C 14,4 C 95 % 1019,1 hPa 0,0 l/m 0 min 0 min 0,0 UV-I 0 W/m 2,7 km/h (1 Bft)
04.09.2014 08:48 14,2 C 14,4 C 95 % 1019,1 hPa 0,0 l/m 0 min 0 min 0,0 UV-I 0 W/m 8,2 km/h (2 Bft)
04.09.2014 08:50 14,3 C 14,4 C 95 % 1019,1 hPa 0,0 l/m 0 min 0 min 0,0 UV-I 0 W/m 2,7 km/h (1 Bft)
04.09.2014 08:52 14,4 C 14,4 C 95 % 1019,1 hPa 0,0 l/m 0 min 0 min 0,0 UV-I 0 W/m 0,0 km/h (0 Bft)
04.09.2014 08:54 14,4 C 14,4 C 95 % 1019,1 hPa 0,0 l/m 0 min 0 min 0,0 UV-I 0 W/m 0,0 km/h (0 Bft)
04.09.2014 08:56 14,5 C 14,4 C 95 % 1019,1 hPa 0,0 l/m 0 min 0 min 0,0 UV-I 0 W/m 0,0 km/h (0 Bft)
04.09.2014 08:58 14,6 C 14,4 C 95 % 1019,1 hPa 0,0 l/m 0 min 0 min 0,0 UV-I 0 W/m 8,2 km/h (2 Bft)
04.09.2014 09:00 14,7 C 14,4 C 95 % 1019,0 hPa 0,0 l/m 0 min 0 min 0,0 UV-I 0 W/m 10,9 km/h (2 Bft)
04.09.2014 09:02 14,7 C 14,4 C 95 % 1019,0 hPa 0,0 l/m 0 min 0 min 0,0 UV-I 0 W/m 8,2 km/h (2 Bft)
04.09.2014 09:04 14,8 C 14,4 C 95 % 1019,0 hPa 0,0 l/m 0 min 0 min 0,0 UV-I 0 W/m 10,9 km/h (2 Bft)
04.09.2014 09:06 14,8 C 15,0 C 95 % 1019,0 hPa 0,0 l/m 0 min 0 min 0,0 UV-I 0 W/m 2,7 km/h (1 Bft)
04.09.2014 09:08 14,9 C 15,0 C 95 % 1019,0 hPa 0,0 l/m 0 min 0 min 0,0 UV-I 0 W/m 0,0 km/h (0 Bft)
04.09.2014 09:10 15,0 C 15,0 C 95 % 1019,1 hPa 0,0 l/m 0 min 0 min 0,0 UV-I 0 W/m 10,9 km/h (2 Bft)
04.09.2014 09:12 15,1 C 15,0 C 95 % 1019,1 hPa 0,0 l/m 0 min 0 min 0,0 UV-I 0 W/m 8,2 km/h (2 Bft)
04.09.2014 09:14 15,2 C 15,0 C 95 % 1019,0 hPa 0,0 l/m 0 min 0 min 0,0 UV-I 0 W/m 0,0 km/h (0 Bft)
04.09.2014 09:16 15,2 C 15,0 C 95 % 1019,0 hPa 0,0 l/m 0 min 0 min 0,0 UV-I 0 W/m 10,9 km/h (2 Bft)
04.09.2014 09:18 15,3 C 15,0 C 95 % 1019,0 hPa 0,0 l/m 0 min 0 min 0,0 UV-I 0 W/m 10,9 km/h (2 Bft)
04.09.2014 09:20 15,4 C 15,0 C 95 % 1018,9 hPa 0,0 l/m 0 min 0 min 0,0 UV-I 0 W/m 10,9 km/h (2 Bft)
04.09.2014 09:22 15,4 C 15,0 C 95 % 1019,0 hPa 0,0 l/m 0 min 0 min 0,0 UV-I 0 W/m 5,5 km/h (1 Bft)
04.09.2014 09:24 15,6 C 15,0 C 95 % 1019,0 hPa 0,0 l/m 0 min 0 min 0,0 UV-I 0 W/m 0,0 km/h (0 Bft)
04.09.2014 09:26 15,6 C 15,6 C 95 % 1019,0 hPa 0,0 l/m 0 min 0 min 0,0 UV-I 0 W/m 13,6 km/h (3 Bft)
04.09.2014 09:28 15,7 C 15,6 C 95 % 1019,0 hPa 0,0 l/m 0 min 0 min 0,0 UV-I 0 W/m 2,7 km/h (1 Bft)
04.09.2014 09:30 15,8 C 15,6 C 94 % 1019,0 hPa 0,0 l/m 0 min 0 min 0,0 UV-I 0 W/m 13,6 km/h (3 Bft)
04.09.2014 09:32 15,9 C 15,6 C 94 % 1018,9 hPa 0,0 l/m 0 min 0 min 0,0 UV-I 0 W/m 8,2 km/h (2 Bft)
04.09.2014 09:34 16,0 C 15,6 C 94 % 1018,8 hPa 0,0 l/m 0 min 0 min 0,0 UV-I 0 W/m 0,0 km/h (0 Bft)
04.09.2014 09:36 16,1 C 15,6 C 93 % 1018,9 hPa 0,0 l/m 0 min 0 min 0,0 UV-I 0 W/m 13,6 km/h (3 Bft)
04.09.2014 09:38 16,2 C 15,6 C 93 % 1018,8 hPa 0,0 l/m 0 min 0 min 0,0 UV-I 0 W/m 8,2 km/h (2 Bft)
04.09.2014 09:40 16,4 C 15,6 C 92 % 1018,8 hPa 0,0 l/m 0 min 0 min 0,0 UV-I 0 W/m 8,2 km/h (2 Bft)
04.09.2014 09:42 16,7 C 15,6 C 91 % 1018,9 hPa 0,0 l/m 0 min 0 min 0,0 UV-I 0 W/m 2,7 km/h (1 Bft)
04.09.2014 09:44 16,9 C 16,1 C 90 % 1018,9 hPa 0,0 l/m 0 min 0 min 0,0 UV-I 0 W/m 10,9 km/h (2 Bft)
04.09.2014 09:46 17,1 C 16,1 C 89 % 1018,9 hPa 0,0 l/m 0 min 0 min 0,0 UV-I 0 W/m 13,6 km/h (3 Bft)
04.09.2014 09:48 17,2 C 16,1 C 88 % 1019,0 hPa 0,0 l/m 0 min 0 min 0,0 UV-I 0 W/m 16,4 km/h (3 Bft)
04.09.2014 09:50 17,4 C 16,1 C 87 % 1018,9 hPa 0,0 l/m 0 min 0 min 0,0 UV-I 0 W/m 10,9 km/h (2 Bft)
04.09.2014 09:52 17,4 C 16,1 C 86 % 1018,9 hPa 0,0 l/m 0 min 0 min 0,0 UV-I 0 W/m 16,4 km/h (3 Bft)
04.09.2014 09:54 17,6 C 16,1 C 86 % 1018,8 hPa 0,0 l/m 0 min 0 min 0,0 UV-I 0 W/m 16,4 km/h (3 Bft)
04.09.2014 09:56 17,7 C 16,1 C 86 % 1018,9 hPa 0,0 l/m 0 min 0 min 0,0 UV-I 0 W/m 16,4 km/h (3 Bft)
04.09.2014 09:58 17,8 C 16,1 C 85 % 1019,0 hPa 0,0 l/m 0 min 0 min 0,0 UV-I 0 W/m 10,9 km/h (2 Bft)
04.09.2014 10:00 17,9 C 16,1 C 85 % 1019,0 hPa 0,0 l/m 0 min 0 min 0,0 UV-I 0 W/m 13,6 km/h (3 Bft)
04.09.2014 10:02 18,0 C 16,7 C 85 % 1019,0 hPa 0,0 l/m 0 min 0 min 0,0 UV-I 0 W/m 10,9 km/h (2 Bft)
04.09.2014 10:04 18,0 C 16,7 C 84 % 1019,0 hPa 0,0 l/m 0 min 0 min 0,0 UV-I 0 W/m 16,4 km/h (3 Bft)
04.09.2014 10:06 18,1 C 16,7 C 84 % 1018,9 hPa 0,0 l/m 0 min 0 min 0,0 UV-I 0 W/m 8,2 km/h (2 Bft)
04.09.2014 10:08 18,1 C 16,7 C 84 % 1019,0 hPa 0,0 l/m 0 min 0 min 0,0 UV-I 0 W/m 13,6 km/h (3 Bft)
04.09.2014 10:10 18,2 C 16,7 C 84 % 1018,9 hPa 0,0 l/m 0 min 0 min 0,0 UV-I 0 W/m 10,9 km/h (2 Bft)
04.09.2014 10:12 18,3 C 16,7 C 84 % 1018,9 hPa 0,0 l/m 0 min 0 min 0,0 UV-I 0 W/m 13,6 km/h (3 Bft)
04.09.2014 10:14 18,4 C 16,7 C 84 % 1018,9 hPa 0,0 l/m 0 min 0 min 0,0 UV-I 0 W/m 2,7 km/h (1 Bft)
04.09.2014 10:16 18,5 C 16,7 C 83 % 1019,0 hPa 0,0 l/m 0 min 0 min 0,0 UV-I 0 W/m 0,0 km/h (0 Bft)
04.09.2014 10:18 18,6 C 17,2 C 83 % 1019,0 hPa 0,0 l/m 0 min 0 min 0,0 UV-I 0 W/m 0,0 km/h (0 Bft)
04.09.2014 10:20 18,7 C 17,2 C 83 % 1019,0 hPa 0,0 l/m 0 min 0 min 0,0 UV-I 0 W/m 16,4 km/h (3 Bft)
04.09.2014 10:22 18,8 C 17,2 C 83 % 1019,0 hPa 0,0 l/m 0 min 0 min 0,0 UV-I 0 W/m 13,6 km/h (3 Bft)
04.09.2014 10:24 18,9 C 17,2 C 82 % 1018,9 hPa 0,0 l/m 0 min 0 min 0,0 UV-I 0 W/m 10,9 km/h (2 Bft)
04.09.2014 10:26 19,0 C 17,2 C 83 % 1018,9 hPa 0,0 l/m 0 min 0 min 0,0 UV-I 0 W/m 2,7 km/h (1 Bft)
04.09.2014 10:28 19,2 C 17,8 C 83 % 1018,9 hPa 0,0 l/m 0 min 0 min 0,0 UV-I 0 W/m 16,4 km/h (3 Bft)
04.09.2014 10:30 19,3 C 17,8 C 81 % 1018,9 hPa 0,0 l/m 0 min 0 min 0,0 UV-I 0 W/m 13,6 km/h (3 Bft)
04.09.2014 10:32 19,4 C 17,8 C 81 % 1019,0 hPa 0,0 l/m 0 min 0 min 0,0 UV-I 0 W/m 16,4 km/h (3 Bft)
04.09.2014 10:34 19,5 C 18,3 C 81 % 1018,9 hPa 0,0 l/m 0 min 0 min 0,0 UV-I 0 W/m 10,9 km/h (2 Bft)
04.09.2014 10:36 19,7 C 18,3 C 81 % 1019,0 hPa 0,0 l/m 0 min 0 min 0,0 UV-I 0 W/m 19,0 km/h (3 Bft)
04.09.2014 10:38 19,8 C 18,3 C 80 % 1018,9 hPa 0,0 l/m 0 min 0 min 0,0 UV-I 0 W/m 24,4 km/h (4 Bft)
04.09.2014 10:40 19,9 C 18,3 C 79 % 1018,9 hPa 0,0 l/m 0 min 0 min 0,0 UV-I 0 W/m 19,0 km/h (3 Bft)
04.09.2014 10:42 19,9 C 18,3 C 79 % 1018,8 hPa 0,0 l/m 0 min 0 min 0,0 UV-I 0 W/m 16,4 km/h (3 Bft)
04.09.2014 10:44 20,0 C 18,3 C 78 % 1018,8 hPa 0,0 l/m 0 min 0 min 0,0 UV-I 0 W/m 19,0 km/h (3 Bft)
04.09.2014 10:46 20,1 C 18,3 C 78 % 1018,8 hPa 0,0 l/m 0 min 0 min 0,0 UV-I 0 W/m 10,9 km/h (2 Bft)
04.09.2014 10:48 20,2 C 18,9 C 79 % 1018,9 hPa 0,0 l/m 0 min 0 min 0,0 UV-I 0 W/m 21,7 km/h (4 Bft)
04.09.2014 10:50 20,2 C 18,9 C 77 % 1018,8 hPa 0,0 l/m 0 min 0 min 0,0 UV-I 0 W/m 16,4 km/h (3 Bft)
04.09.2014 10:52 20,2 C 18,9 C 77 % 1018,8 hPa 0,0 l/m 0 min 0 min 0,0 UV-I 0 W/m 13,6 km/h (3 Bft)
04.09.2014 10:54 20,2 C 18,9 C 77 % 1018,8 hPa 0,0 l/m 0 min 0 min 0,0 UV-I 0 W/m 24,4 km/h (4 Bft)
04.09.2014 10:56 20,2 C 18,9 C 77 % 1018,8 hPa 0,0 l/m 0 min 0 min 0,0 UV-I 0 W/m 19,0 km/h (3 Bft)
04.09.2014 10:58 20,2 C 18,9 C 77 % 1018,7 hPa 0,0 l/m 0 min 0 min 0,0 UV-I 0 W/m 19,0 km/h (3 Bft)
04.09.2014 11:00 20,2 C 18,9 C 77 % 1018,7 hPa 0,0 l/m 0 min 0 min 0,0 UV-I 0 W/m 13,6 km/h (3 Bft)
04.09.2014 11:02 20,3 C 18,9 C 79 % 1018,7 hPa 0,0 l/m 0 min 0 min 0,0 UV-I 0 W/m 16,4 km/h (3 Bft)
04.09.2014 11:04 20,3 C 18,9 C 78 % 1018,7 hPa 0,0 l/m 0 min 0 min 0,0 UV-I 0 W/m 16,4 km/h (3 Bft)
04.09.2014 11:06 20,4 C 19,4 C 77 % 1018,8 hPa 0,0 l/m 0 min 0 min 0,0 UV-I 0 W/m 13,6 km/h (3 Bft)
04.09.2014 11:08 20,6 C 19,4 C 78 % 1018,7 hPa 0,0 l/m 0 min 0 min 0,0 UV-I 0 W/m 16,4 km/h (3 Bft)
04.09.2014 11:10 20,6 C 19,4 C 76 % 1018,7 hPa 0,0 l/m 0 min 0 min 0,0 UV-I 0 W/m 10,9 km/h (2 Bft)
04.09.2014 11:12 20,7 C 19,4 C 77 % 1018,8 hPa 0,0 l/m 0 min 0 min 0,0 UV-I 0 W/m 19,0 km/h (3 Bft)
04.09.2014 11:14 20,7 C 19,4 C 76 % 1018,7 hPa 0,0 l/m 0 min 0 min 0,0 UV-I 0 W/m 8,2 km/h (2 Bft)
04.09.2014 11:16 20,7 C 19,4 C 77 % 1018,7 hPa 0,0 l/m 0 min 0 min 0,0 UV-I 0 W/m 0,0 km/h (0 Bft)
04.09.2014 11:18 20,9 C 19,4 C 77 % 1018,7 hPa 0,0 l/m 0 min 0 min 0,0 UV-I 0 W/m 16,4 km/h (3 Bft)
04.09.2014 11:20 20,9 C 19,4 C 75 % 1018,7 hPa 0,0 l/m 0 min 0 min 0,0 UV-I 0 W/m 16,4 km/h (3 Bft)
04.09.2014 11:22 20,9 C 19,4 C 75 % 1018,7 hPa 0,0 l/m 0 min 0 min 0,0 UV-I 0 W/m 13,6 km/h (3 Bft)
04.09.2014 11:24 20,9 C 19,4 C 76 % 1018,7 hPa 0,0 l/m 0 min 0 min 0,0 UV-I 0 W/m 21,7 km/h (4 Bft)
04.09.2014 11:26 20,9 C 19,4 C 76 % 1018,7 hPa 0,0 l/m 0 min 0 min 0,0 UV-I 0 W/m 16,4 km/h (3 Bft)
04.09.2014 11:28 21,0 C 20,0 C 76 % 1018,7 hPa 0,0 l/m 0 min 0 min 0,0 UV-I 0 W/m 13,6 km/h (3 Bft)
04.09.2014 11:30 21,0 C 20,0 C 75 % 1018,7 hPa 0,0 l/m 0 min 0 min 0,0 UV-I 0 W/m 24,4 km/h (4 Bft)
04.09.2014 11:32 21,0 C 19,4 C 75 % 1018,7 hPa 0,0 l/m 0 min 0 min 0,0 UV-I 0 W/m 21,7 km/h (4 Bft)
04.09.2014 11:34 21,0 C 19,4 C 75 % 1018,7 hPa 0,0 l/m 0 min 0 min 0,0 UV-I 0 W/m 16,4 km/h (3 Bft)
04.09.2014 11:36 20,9 C 19,4 C 75 % 1018,6 hPa 0,0 l/m 0 min 0 min 0,0 UV-I 0 W/m 13,6 km/h (3 Bft)
04.09.2014 11:38 21,1 C 20,0 C 76 % 1018,6 hPa 0,0 l/m 0 min 0 min 0,0 UV-I 0 W/m 19,0 km/h (3 Bft)
04.09.2014 11:40 21,2 C 20,0 C 75 % 1018,6 hPa 0,0 l/m 0 min 0 min 0,0 UV-I 0 W/m 19,0 km/h (3 Bft)
04.09.2014 11:42 21,3 C 20,0 C 75 % 1018,6 hPa 0,0 l/m 0 min 0 min 0,0 UV-I 0 W/m 13,6 km/h (3 Bft)
04.09.2014 11:44 21,5 C 20,0 C 74 % 1018,6 hPa 0,0 l/m 0 min 0 min 0,0 UV-I 0 W/m 16,4 km/h (3 Bft)
04.09.2014 11:46 21,5 C 20,0 C 74 % 1018,6 hPa 0,0 l/m 0 min 0 min 0,0 UV-I 0 W/m 16,4 km/h (3 Bft)
04.09.2014 11:48 21,6 C 20,6 C 74 % 1018,5 hPa 0,0 l/m 0 min 0 min 0,0 UV-I 0 W/m 16,4 km/h (3 Bft)
04.09.2014 11:50 21,6 C 20,0 C 73 % 1018,6 hPa 0,0 l/m 0 min 0 min 0,0 UV-I 0 W/m 21,7 km/h (4 Bft)
04.09.2014 11:52 21,6 C 20,6 C 74 % 1018,6 hPa 0,0 l/m 0 min 0 min 0,0 UV-I 0 W/m 16,4 km/h (3 Bft)
04.09.2014 11:54 21,7 C 20,6 C 76 % 1018,6 hPa 0,0 l/m 0 min 0 min 0,0 UV-I 0 W/m 13,6 km/h (3 Bft)
04.09.2014 11:56 21,7 C 20,6 C 73 % 1018,6 hPa 0,0 l/m 0 min 0 min 0,0 UV-I 0 W/m 8,2 km/h (2 Bft)
04.09.2014 11:58 21,6 C 20,6 C 73 % 1018,6 hPa 0,0 l/m 0 min 0 min 0,0 UV-I 0 W/m 8,2 km/h (2 Bft)
04.09.2014 12:00 21,6 C 20,6 C 73 % 1018,6 hPa 0,0 l/m 0 min 0 min 0,0 UV-I 0 W/m 5,5 km/h (1 Bft)
04.09.2014 12:02 21,7 C 20,6 C 75 % 1018,6 hPa 0,0 l/m 0 min 0 min 0,0 UV-I 0 W/m 10,9 km/h (2 Bft)
04.09.2014 12:06 21,8 C 20,6 C 73 % 1018,5 hPa 0,0 l/m 0 min 0 min 0,0 UV-I 0 W/m 21,7 km/h (4 Bft)
04.09.2014 12:08 21,6 C 20,6 C 72 % 1018,6 hPa 0,0 l/m 0 min 0 min 0,0 UV-I 0 W/m 16,4 km/h (3 Bft)
04.09.2014 12:10 21,6 C 20,6 C 74 % 1018,5 hPa 0,0 l/m 0 min 0 min 0,0 UV-I 0 W/m 21,7 km/h (4 Bft)
04.09.2014 12:12 21,5 C 20,6 C 73 % 1018,5 hPa 0,0 l/m 0 min 0 min 0,0 UV-I 0 W/m 10,9 km/h (2 Bft)
04.09.2014 12:14 21,4 C 20,0 C 74 % 1018,5 hPa 0,0 l/m 0 min 0 min 0,0 UV-I 0 W/m 16,4 km/h (3 Bft)
04.09.2014 12:16 21,3 C 20,6 C 74 % 1018,5 hPa 0,0 l/m 0 min 0 min 0,0 UV-I 0 W/m 19,0 km/h (3 Bft)
04.09.2014 12:18 21,4 C 20,6 C 74 % 1018,5 hPa 0,0 l/m 0 min 0 min 0,0 UV-I 0 W/m 13,6 km/h (3 Bft)
04.09.2014 12:20 21,6 C 21,1 C 73 % 1018,5 hPa 0,0 l/m 0 min 0 min 0,0 UV-I 0 W/m 13,6 km/h (3 Bft)
04.09.2014 12:22 21,8 C 21,1 C 74 % 1018,4 hPa 0,0 l/m 0 min 0 min 0,0 UV-I 0 W/m 21,7 km/h (4 Bft)
04.09.2014 12:24 22,1 C 21,7 C 74 % 1018,5 hPa 0,0 l/m 0 min 0 min 0,0 UV-I 0 W/m 16,4 km/h (3 Bft)
04.09.2014 12:26 22,3 C 21,7 C 73 % 1018,4 hPa 0,0 l/m 0 min 0 min 0,0 UV-I 0 W/m 24,4 km/h (4 Bft)
04.09.2014 12:28 22,3 C 21,1 C 71 % 1018,5 hPa 0,0 l/m 0 min 0 min 0,0 UV-I 0 W/m 16,4 km/h (3 Bft)
04.09.2014 12:30 22,2 C 21,1 C 73 % 1018,4 hPa 0,0 l/m 0 min 0 min 0,0 UV-I 0 W/m 16,4 km/h (3 Bft)
04.09.2014 12:32 22,2 C 21,7 C 74 % 1018,4 hPa 0,0 l/m 0 min 0 min 0,0 UV-I 0 W/m 19,0 km/h (3 Bft)
04.09.2014 12:34 22,2 C 21,7 C 72 % 1018,3 hPa 0,0 l/m 0 min 0 min 0,0 UV-I 0 W/m 32,6 km/h (5 Bft)
04.09.2014 12:36 22,3 C 21,1 C 72 % 1018,4 hPa 0,0 l/m 0 min 0 min 0,0 UV-I 0 W/m 16,4 km/h (3 Bft)
04.09.2014 12:38 22,2 C 21,1 C 71 % 1018,3 hPa 0,0 l/m 0 min 0 min 0,0 UV-I 0 W/m 21,7 km/h (4 Bft)
04.09.2014 12:40 22,0 C 21,1 C 72 % 1018,3 hPa 0,0 l/m 0 min 0 min 0,0 UV-I 0 W/m 10,9 km/h (2 Bft)
04.09.2014 12:42 21,8 C 21,1 C 72 % 1018,2 hPa 0,0 l/m 0 min 0 min 0,0 UV-I 0 W/m 10,9 km/h (2 Bft)
04.09.2014 12:44 21,8 C 21,1 C 73 % 1018,3 hPa 0,0 l/m 0 min 0 min 0,0 UV-I 0 W/m 16,4 km/h (3 Bft)
04.09.2014 12:46 22,1 C 21,7 C 74 % 1018,2 hPa 0,0 l/m 0 min 0 min 0,0 UV-I 0 W/m 16,4 km/h (3 Bft)
04.09.2014 12:48 22,2 C 21,7 C 71 % 1018,2 hPa 0,0 l/m 0 min 0 min 0,0 UV-I 0 W/m 0,0 km/h (0 Bft)
04.09.2014 12:50 22,3 C 22,2 C 72 % 1018,2 hPa 0,0 l/m 0 min 0 min 0,0 UV-I 0 W/m 10,9 km/h (2 Bft)
04.09.2014 12:52 22,5 C 22,2 C 71 % 1018,1 hPa 0,0 l/m 0 min 0 min 0,0 UV-I 0 W/m 19,0 km/h (3 Bft)
04.09.2014 12:54 22,5 C 22,2 C 70 % 1018,1 hPa 0,0 l/m 0 min 0 min 0,0 UV-I 0 W/m 19,0 km/h (3 Bft)
04.09.2014 12:56 22,4 C 21,7 C 69 % 1018,1 hPa 0,0 l/m 0 min 0 min 0,0 UV-I 0 W/m 16,4 km/h (3 Bft)
04.09.2014 12:58 22,4 C 22,2 C 70 % 1018,0 hPa 0,0 l/m 0 min 0 min 0,0 UV-I 0 W/m 16,4 km/h (3 Bft)
04.09.2014 13:00 22,6 C 22,2 C 72 % 1018,0 hPa 0,0 l/m 0 min 0 min 0,0 UV-I 0 W/m 21,7 km/h (4 Bft)
04.09.2014 13:02 22,6 C 22,2 C 70 % 1018,0 hPa 0,0 l/m 0 min 0 min 0,0 UV-I 0 W/m 24,4 km/h (4 Bft)
04.09.2014 13:04 22,6 C 21,7 C 70 % 1018,0 hPa 0,0 l/m 0 min 0 min 0,0 UV-I 0 W/m 19,0 km/h (3 Bft)
04.09.2014 13:06 22,5 C 22,2 C 71 % 1018,0 hPa 0,0 l/m 0 min 0 min 0,0 UV-I 0 W/m 13,6 km/h (3 Bft)
04.09.2014 13:08 22,6 C 22,2 C 70 % 1018,0 hPa 0,0 l/m 0 min 0 min 0,0 UV-I 0 W/m 16,4 km/h (3 Bft)
04.09.2014 13:10 22,6 C 21,7 C 70 % 1017,9 hPa 0,0 l/m 0 min 0 min 0,0 UV-I 0 W/m 16,4 km/h (3 Bft)
04.09.2014 13:12 22,7 C 22,2 C 71 % 1018,0 hPa 0,0 l/m 0 min 0 min 0,0 UV-I 0 W/m 16,4 km/h (3 Bft)
04.09.2014 13:14 22,8 C 22,2 C 70 % 1017,9 hPa 0,0 l/m 0 min 0 min 0,0 UV-I 0 W/m 19,0 km/h (3 Bft)
04.09.2014 13:16 22,8 C 22,2 C 69 % 1017,9 hPa 0,0 l/m 0 min 0 min 0,0 UV-I 0 W/m 13,6 km/h (3 Bft)
04.09.2014 13:18 22,8 C 22,2 C 70 % 1017,9 hPa 0,0 l/m 0 min 0 min 0,0 UV-I 0 W/m 13,6 km/h (3 Bft)
04.09.2014 13:20 22,8 C 22,2 C 69 % 1017,9 hPa 0,0 l/m 0 min 0 min 0,0 UV-I 0 W/m 16,4 km/h (3 Bft)
04.09.2014 13:22 22,9 C 22,2 C 69 % 1017,8 hPa 0,0 l/m 0 min 0 min 0,0 UV-I 0 W/m 16,4 km/h (3 Bft)
04.09.2014 13:24 22,9 C 22,8 C 69 % 1017,8 hPa 0,0 l/m 0 min 0 min 0,0 UV-I 0 W/m 0,0 km/h (0 Bft)
04.09.2014 13:26 23,1 C 22,8 C 71 % 1017,7 hPa 0,0 l/m 0 min 0 min 0,0 UV-I 0 W/m 16,4 km/h (3 Bft)
04.09.2014 13:28 23,2 C 22,8 C 69 % 1017,8 hPa 0,0 l/m 0 min 0 min 0,0 UV-I 0 W/m 16,4 km/h (3 Bft)
04.09.2014 13:30 23,3 C 22,8 C 69 % 1017,8 hPa 0,0 l/m 0 min 0 min 0,0 UV-I 0 W/m 24,4 km/h (4 Bft)
04.09.2014 13:32 23,4 C 22,8 C 69 % 1017,8 hPa 0,0 l/m 0 min 0 min 0,0 UV-I 0 W/m 24,4 km/h (4 Bft)
04.09.2014 13:34 23,4 C 22,8 C 70 % 1017,8 hPa 0,0 l/m 0 min 0 min 0,0 UV-I 0 W/m 19,0 km/h (3 Bft)
04.09.2014 13:36 23,3 C 22,2 C 68 % 1017,8 hPa 0,0 l/m 0 min 0 min 0,0 UV-I 0 W/m 19,0 km/h (3 Bft)
04.09.2014 13:38 23,2 C 22,2 C 68 % 1017,6 hPa 0,0 l/m 0 min 0 min 0,0 UV-I 0 W/m 16,4 km/h (3 Bft)
04.09.2014 13:40 23,3 C 22,2 C 69 % 1017,7 hPa 0,0 l/m 0 min 0 min 0,0 UV-I 0 W/m 13,6 km/h (3 Bft)
04.09.2014 13:42 23,3 C 22,2 C 70 % 1017,6 hPa 0,0 l/m 0 min 0 min 0,0 UV-I 0 W/m 19,0 km/h (3 Bft)
04.09.2014 13:44 23,4 C 22,8 C 69 % 1017,6 hPa 0,0 l/m 0 min 0 min 0,0 UV-I 0 W/m 21,7 km/h (4 Bft)
04.09.2014 13:46 23,4 C 22,2 C 69 % 1017,6 hPa 0,0 l/m 0 min 0 min 0,0 UV-I 0 W/m 19,0 km/h (3 Bft)
04.09.2014 13:48 23,4 C 22,8 C 71 % 1017,6 hPa 0,0 l/m 0 min 0 min 0,0 UV-I 0 W/m 8,2 km/h (2 Bft)
04.09.2014 13:50 23,6 C 22,8 C 69 % 1017,7 hPa 0,0 l/m 0 min 0 min 0,0 UV-I 0 W/m 24,4 km/h (4 Bft)
04.09.2014 13:52 23,7 C 22,8 C 68 % 1017,6 hPa 0,0 l/m 0 min 0 min 0,0 UV-I 0 W/m 24,4 km/h (4 Bft)
04.09.2014 13:54 23,6 C 22,8 C 69 % 1017,6 hPa 0,0 l/m 0 min 0 min 0,0 UV-I 0 W/m 19,0 km/h (3 Bft)
04.09.2014 13:56 23,6 C 22,8 C 68 % 1017,6 hPa 0,0 l/m 0 min 0 min 0,0 UV-I 0 W/m 13,6 km/h (3 Bft)
04.09.2014 13:58 23,6 C 22,8 C 68 % 1017,6 hPa 0,0 l/m 0 min 0 min 0,0 UV-I 0 W/m 21,7 km/h (4 Bft)
04.09.2014 14:00 23,6 C 22,8 C 67 % 1017,5 hPa 0,0 l/m 0 min 0 min 0,0 UV-I 0 W/m 19,0 km/h (3 Bft)
04.09.2014 14:02 23,6 C 22,8 C 68 % 1017,5 hPa 0,0 l/m 0 min 0 min 0,0 UV-I 0 W/m 24,4 km/h (4 Bft)
04.09.2014 14:04 23,7 C 22,8 C 67 % 1017,5 hPa 0,0 l/m 0 min 0 min 0,0 UV-I 0 W/m 29,9 km/h (5 Bft)
04.09.2014 14:06 23,7 C 22,2 C 67 % 1017,5 hPa 0,0 l/m 0 min 0 min 0,0 UV-I 0 W/m 19,0 km/h (3 Bft)
04.09.2014 14:08 23,8 C 22,8 C 68 % 1017,5 hPa 0,0 l/m 0 min 0 min 0,0 UV-I 0 W/m 16,4 km/h (3 Bft)
04.09.2014 14:10 23,8 C 22,8 C 67 % 1017,5 hPa 0,0 l/m 0 min 0 min 0,0 UV-I 0 W/m 19,0 km/h (3 Bft)
04.09.2014 14:12 23,8 C 22,2 C 68 % 1017,5 hPa 0,0 l/m 0 min 0 min 0,0 UV-I 0 W/m 27,2 km/h (4 Bft)
04.09.2014 14:14 23,6 C 22,2 C 67 % 1017,5 hPa 0,0 l/m 0 min 0 min 0,0 UV-I 0 W/m 24,4 km/h (4 Bft)
04.09.2014 14:16 23,3 C 22,2 C 67 % 1017,5 hPa 0,0 l/m 0 min 0 min 0,0 UV-I 0 W/m 13,6 km/h (3 Bft)
04.09.2014 14:18 23,3 C 22,2 C 69 % 1017,5 hPa 0,0 l/m 0 min 0 min 0,0 UV-I 0 W/m 13,6 km/h (3 Bft)
04.09.2014 14:20 23,4 C 22,2 C 71 % 1017,4 hPa 0,0 l/m 0 min 0 min 0,0 UV-I 0 W/m 19,0 km/h (3 Bft)
04.09.2014 14:22 23,6 C 22,8 C 70 % 1017,4 hPa 0,0 l/m 0 min 0 min 0,0 UV-I 0 W/m 19,0 km/h (3 Bft)
04.09.2014 14:24 23,7 C 22,8 C 69 % 1017,4 hPa 0,0 l/m 0 min 0 min 0,0 UV-I 0 W/m 21,7 km/h (4 Bft)
04.09.2014 14:26 23,8 C 22,8 C 69 % 1017,4 hPa 0,0 l/m 0 min 0 min 0,0 UV-I 0 W/m 21,7 km/h (4 Bft)
04.09.2014 14:28 23,9 C 22,8 C 69 % 1017,4 hPa 0,0 l/m 0 min 0 min 0,0 UV-I 0 W/m 24,4 km/h (4 Bft)
04.09.2014 14:30 23,9 C 22,8 C 68 % 1017,3 hPa 0,0 l/m 0 min 0 min 0,0 UV-I 0 W/m 24,4 km/h (4 Bft)
04.09.2014 14:32 23,9 C 22,8 C 68 % 1017,4 hPa 0,0 l/m 0 min 0 min 0,0 UV-I 0 W/m 16,4 km/h (3 Bft)
04.09.2014 14:34 23,9 C 22,8 C 67 % 1017,3 hPa 0,0 l/m 0 min 0 min 0,0 UV-I 0 W/m 19,0 km/h (3 Bft)
04.09.2014 14:36 23,9 C 22,8 C 69 % 1017,3 hPa 0,0 l/m 0 min 0 min 0,0 UV-I 0 W/m 19,0 km/h (3 Bft)
04.09.2014 14:38 24,0 C 22,8 C 68 % 1017,2 hPa 0,0 l/m 0 min 0 min 0,0 UV-I 0 W/m 19,0 km/h (3 Bft)
04.09.2014 14:40 23,9 C 22,8 C 67 % 1017,3 hPa 0,0 l/m 0 min 0 min 0,0 UV-I 0 W/m 21,7 km/h (4 Bft)
04.09.2014 14:42 23,9 C 22,8 C 68 % 1017,2 hPa 0,0 l/m 0 min 0 min 0,0 UV-I 0 W/m 24,4 km/h (4 Bft)
04.09.2014 14:44 23,9 C 22,8 C 68 % 1017,3 hPa 0,0 l/m 0 min 0 min 0,0 UV-I 0 W/m 27,2 km/h (4 Bft)
04.09.2014 14:46 23,8 C 22,8 C 68 % 1017,2 hPa 0,0 l/m 0 min 0 min 0,0 UV-I 0 W/m 19,0 km/h (3 Bft)
04.09.2014 14:48 23,8 C 22,8 C 68 % 1017,2 hPa 0,0 l/m 0 min 0 min 0,0 UV-I 0 W/m 21,7 km/h (4 Bft)
04.09.2014 14:50 23,9 C 22,8 C 70 % 1017,2 hPa 0,0 l/m 0 min 0 min 0,0 UV-I 0 W/m 27,2 km/h (4 Bft)
04.09.2014 14:52 23,9 C 22,8 C 68 % 1017,2 hPa 0,0 l/m 0 min 0 min 0,0 UV-I 0 W/m 2,7 km/h (1 Bft)
04.09.2014 14:54 24,0 C 22,8 C 69 % 1017,1 hPa 0,0 l/m 0 min 0 min 0,0 UV-I 0 W/m 16,4 km/h (3 Bft)
04.09.2014 14:56 24,2 C 22,8 C 69 % 1017,1 hPa 0,0 l/m 0 min 0 min 0,0 UV-I 0 W/m 2,7 km/h (1 Bft)
04.09.2014 14:58 24,2 C 22,8 C 67 % 1017,1 hPa 0,0 l/m 0 min 0 min 0,0 UV-I 0 W/m 13,6 km/h (3 Bft)
04.09.2014 15:00 24,3 C 22,8 C 67 % 1017,1 hPa 0,0 l/m 0 min 0 min 0,0 UV-I 0 W/m 13,6 km/h (3 Bft)
04.09.2014 15:02 24,4 C 22,8 C 68 % 1017,1 hPa 0,0 l/m 0 min 0 min 0,0 UV-I 0 W/m 24,4 km/h (4 Bft)
04.09.2014 15:04 24,4 C 22,8 C 66 % 1017,1 hPa 0,0 l/m 0 min 0 min 0,0 UV-I 0 W/m 19,0 km/h (3 Bft)
04.09.2014 15:06 24,3 C 22,8 C 66 % 1017,0 hPa 0,0 l/m 0 min 0 min 0,0 UV-I 0 W/m 19,0 km/h (3 Bft)
04.09.2014 15:08 24,4 C 22,8 C 67 % 1017,1 hPa 0,0 l/m 0 min 0 min 0,0 UV-I 0 W/m 19,0 km/h (3 Bft)
04.09.2014 15:10 24,4 C 22,8 C 67 % 1017,1 hPa 0,0 l/m 0 min 0 min 0,0 UV-I 0 W/m 16,4 km/h (3 Bft)
04.09.2014 15:12 24,3 C 22,8 C 65 % 1017,0 hPa 0,0 l/m 0 min 0 min 0,0 UV-I 0 W/m 13,6 km/h (3 Bft)
04.09.2014 15:14 24,2 C 22,8 C 67 % 1017,1 hPa 0,0 l/m 0 min 0 min 0,0 UV-I 0 W/m 16,4 km/h (3 Bft)
04.09.2014 15:16 24,2 C 22,8 C 67 % 1017,1 hPa 0,0 l/m 0 min 0 min 0,0 UV-I 0 W/m 13,6 km/h (3 Bft)
04.09.2014 15:18 24,2 C 22,8 C 67 % 1017,0 hPa 0,0 l/m 0 min 0 min 0,0 UV-I 0 W/m 19,0 km/h (3 Bft)
04.09.2014 15:20 24,3 C 22,8 C 69 % 1017,0 hPa 0,0 l/m 0 min 0 min 0,0 UV-I 0 W/m 24,4 km/h (4 Bft)
04.09.2014 15:22 24,3 C 22,8 C 66 % 1017,0 hPa 0,0 l/m 0 min 0 min 0,0 UV-I 0 W/m 13,6 km/h (3 Bft)
04.09.2014 15:24 24,3 C 22,8 C 68 % 1017,0 hPa 0,0 l/m 0 min 0 min 0,0 UV-I 0 W/m 16,4 km/h (3 Bft)
04.09.2014 15:26 24,4 C 22,8 C 67 % 1017,0 hPa 0,0 l/m 0 min 0 min 0,0 UV-I 0 W/m 2,7 km/h (1 Bft)
04.09.2014 15:28 24,5 C 23,3 C 66 % 1017,0 hPa 0,0 l/m 0 min 0 min 0,0 UV-I 0 W/m 8,2 km/h (2 Bft)
04.09.2014 15:30 24,5 C 22,8 C 66 % 1017,0 hPa 0,0 l/m 0 min 0 min 0,0 UV-I 0 W/m 19,0 km/h (3 Bft)
04.09.2014 15:32 24,6 C 22,8 C 67 % 1017,0 hPa 0,0 l/m 0 min 0 min 0,0 UV-I 0 W/m 13,6 km/h (3 Bft)
04.09.2014 15:34 24,6 C 23,3 C 67 % 1017,0 hPa 0,0 l/m 0 min 0 min 0,0 UV-I 0 W/m 13,6 km/h (3 Bft)
04.09.2014 15:36 24,6 C 23,3 C 66 % 1017,0 hPa 0,0 l/m 0 min 0 min 0,0 UV-I 0 W/m 10,9 km/h (2 Bft)
04.09.2014 15:38 24,6 C 23,3 C 67 % 1017,0 hPa 0,0 l/m 0 min 0 min 0,0 UV-I 0 W/m 19,0 km/h (3 Bft)
04.09.2014 15:40 24,7 C 23,3 C 68 % 1017,0 hPa 0,0 l/m 0 min 0 min 0,0 UV-I 0 W/m 21,7 km/h (4 Bft)
04.09.2014 15:42 24,6 C 23,3 C 66 % 1017,0 hPa 0,0 l/m 0 min 0 min 0,0 UV-I 0 W/m 21,7 km/h (4 Bft)
04.09.2014 15:44 24,5 C 23,3 C 67 % 1017,0 hPa 0,0 l/m 0 min 0 min 0,0 UV-I 0 W/m 19,0 km/h (3 Bft)
04.09.2014 15:46 24,5 C 23,3 C 68 % 1017,0 hPa 0,0 l/m 0 min 0 min 0,0 UV-I 0 W/m 24,4 km/h (4 Bft)
04.09.2014 15:48 24,4 C 22,8 C 65 % 1016,9 hPa 0,0 l/m 0 min 0 min 0,0 UV-I 0 W/m 19,0 km/h (3 Bft)
04.09.2014 15:50 24,4 C 23,3 C 68 % 1016,9 hPa 0,0 l/m 0 min 0 min 0,0 UV-I 0 W/m 19,0 km/h (3 Bft)
04.09.2014 15:52 24,4 C 23,3 C 67 % 1017,0 hPa 0,0 l/m 0 min 0 min 0,0 UV-I 0 W/m 19,0 km/h (3 Bft)
04.09.2014 15:54 24,4 C 22,8 C 65 % 1016,9 hPa 0,0 l/m 0 min 0 min 0,0 UV-I 0 W/m 13,6 km/h (3 Bft)
04.09.2014 15:56 24,5 C 22,8 C 67 % 1016,8 hPa 0,0 l/m 0 min 0 min 0,0 UV-I 0 W/m 10,9 km/h (2 Bft)
04.09.2014 15:58 24,6 C 22,8 C 65 % 1016,9 hPa 0,0 l/m 0 min 0 min 0,0 UV-I 0 W/m 16,4 km/h (3 Bft)
04.09.2014 16:00 24,6 C 22,8 C 67 % 1016,8 hPa 0,0 l/m 0 min 0 min 0,0 UV-I 0 W/m 16,4 km/h (3 Bft)
04.09.2014 16:02 24,6 C 23,3 C 66 % 1016,9 hPa 0,0 l/m 0 min 0 min 0,0 UV-I 0 W/m 13,6 km/h (3 Bft)
04.09.2014 16:04 24,6 C 23,3 C 66 % 1016,8 hPa 0,0 l/m 0 min 0 min 0,0 UV-I 0 W/m 19,0 km/h (3 Bft)
04.09.2014 16:06 24,4 C 22,8 C 65 % 1016,8 hPa 0,0 l/m 0 min 0 min 0,0 UV-I 0 W/m 13,6 km/h (3 Bft)
04.09.2014 16:08 24,5 C 23,3 C 67 % 1016,8 hPa 0,0 l/m 0 min 0 min 0,0 UV-I 0 W/m 13,6 km/h (3 Bft)
04.09.2014 16:10 24,6 C 23,3 C 67 % 1016,8 hPa 0,0 l/m 0 min 0 min 0,0 UV-I 0 W/m 10,9 km/h (2 Bft)
04.09.2014 16:12 24,6 C 23,3 C 67 % 1016,8 hPa 0,0 l/m 0 min 0 min 0,0 UV-I 0 W/m 16,4 km/h (3 Bft)
04.09.2014 16:14 24,6 C 23,3 C 67 % 1016,7 hPa 0,0 l/m 0 min 0 min 0,0 UV-I 0 W/m 16,4 km/h (3 Bft)
04.09.2014 16:16 24,5 C 22,8 C 66 % 1016,7 hPa 0,0 l/m 0 min 0 min 0,0 UV-I 0 W/m 13,6 km/h (3 Bft)
04.09.2014 16:18 24,6 C 22,8 C 65 % 1016,7 hPa 0,0 l/m 0 min 0 min 0,0 UV-I 0 W/m 2,7 km/h (1 Bft)
04.09.2014 16:20 24,5 C 22,8 C 66 % 1016,6 hPa 0,0 l/m 0 min 0 min 0,0 UV-I 0 W/m 2,7 km/h (1 Bft)
04.09.2014 16:22 24,6 C 22,8 C 66 % 1016,6 hPa 0,0 l/m 0 min 0 min 0,0 UV-I 0 W/m 10,9 km/h (2 Bft)
04.09.2014 16:24 24,7 C 23,3 C 67 % 1016,6 hPa 0,0 l/m 0 min 0 min 0,0 UV-I 0 W/m 24,4 km/h (4 Bft)
04.09.2014 16:26 24,8 C 23,3 C 66 % 1016,6 hPa 0,0 l/m 0 min 0 min 0,0 UV-I 0 W/m 19,0 km/h (3 Bft)
04.09.2014 16:28 24,8 C 23,3 C 67 % 1016,6 hPa 0,0 l/m 0 min 0 min 0,0 UV-I 0 W/m 19,0 km/h (3 Bft)
04.09.2014 16:30 24,8 C 23,3 C 67 % 1016,6 hPa 0,0 l/m 0 min 0 min 0,0 UV-I 0 W/m 8,2 km/h (2 Bft)
04.09.2014 16:32 24,8 C 23,3 C 65 % 1016,6 hPa 0,0 l/m 0 min 0 min 0,0 UV-I 0 W/m 8,2 km/h (2 Bft)
04.09.2014 16:34 24,8 C 23,3 C 66 % 1016,5 hPa 0,0 l/m 0 min 0 min 0,0 UV-I 0 W/m 19,0 km/h (3 Bft)
04.09.2014 16:36 24,8 C 23,3 C 65 % 1016,5 hPa 0,0 l/m 0 min 0 min 0,0 UV-I 0 W/m 13,6 km/h (3 Bft)
04.09.2014 16:38 24,8 C 23,3 C 66 % 1016,4 hPa 0,0 l/m 0 min 0 min 0,0 UV-I 0 W/m 10,9 km/h (2 Bft)
04.09.2014 16:40 24,9 C 23,3 C 67 % 1016,4 hPa 0,0 l/m 0 min 0 min 0,0 UV-I 0 W/m 8,2 km/h (2 Bft)
04.09.2014 16:42 25,0 C 23,3 C 66 % 1016,4 hPa 0,0 l/m 0 min 0 min 0,0 UV-I 0 W/m 2,7 km/h (1 Bft)
04.09.2014 16:44 25,0 C 23,3 C 66 % 1016,4 hPa 0,0 l/m 0 min 0 min 0,0 UV-I 0 W/m 8,2 km/h (2 Bft)
04.09.2014 16:46 24,8 C 23,3 C 64 % 1016,3 hPa 0,0 l/m 0 min 0 min 0,0 UV-I 0 W/m 2,7 km/h (1 Bft)
04.09.2014 16:48 24,7 C 23,3 C 66 % 1016,3 hPa 0,0 l/m 0 min 0 min 0,0 UV-I 0 W/m 0,0 km/h (0 Bft)
04.09.2014 16:50 24,7 C 23,3 C 64 % 1016,3 hPa 0,0 l/m 0 min 0 min 0,0 UV-I 0 W/m 0,0 km/h (0 Bft)
04.09.2014 16:52 24,6 C 23,3 C 66 % 1016,2 hPa 0,0 l/m 0 min 0 min 0,0 UV-I 0 W/m 0,0 km/h (0 Bft)
04.09.2014 16:54 24,6 C 23,3 C 66 % 1016,3 hPa 0,0 l/m 0 min 0 min 0,0 UV-I 0 W/m 13,6 km/h (3 Bft)
04.09.2014 16:56 24,6 C 23,3 C 68 % 1016,3 hPa 0,0 l/m 0 min 0 min 0,0 UV-I 0 W/m 13,6 km/h (3 Bft)
04.09.2014 16:58 24,7 C 23,3 C 67 % 1016,2 hPa 0,0 l/m 0 min 0 min 0,0 UV-I 0 W/m 8,2 km/h (2 Bft)
04.09.2014 17:00 24,7 C 23,3 C 66 % 1016,2 hPa 0,0 l/m 0 min 0 min 0,0 UV-I 0 W/m 13,6 km/h (3 Bft)
04.09.2014 17:02 24,8 C 23,3 C 68 % 1016,3 hPa 0,0 l/m 0 min 0 min 0,0 UV-I 0 W/m 29,9 km/h (5 Bft)
04.09.2014 17:04 24,7 C 23,3 C 66 % 1016,3 hPa 0,0 l/m 0 min 0 min 0,0 UV-I 0 W/m 24,4 km/h (4 Bft)
04.09.2014 17:06 24,6 C 22,8 C 66 % 1016,3 hPa 0,0 l/m 0 min 0 min 0,0 UV-I 0 W/m 13,6 km/h (3 Bft)
04.09.2014 17:08 24,4 C 22,8 C 67 % 1016,3 hPa 0,0 l/m 0 min 0 min 0,0 UV-I 0 W/m 16,4 km/h (3 Bft)
04.09.2014 17:10 24,3 C 22,8 C 68 % 1016,2 hPa 0,0 l/m 0 min 0 min 0,0 UV-I 0 W/m 16,4 km/h (3 Bft)
04.09.2014 17:12 24,3 C 22,8 C 68 % 1016,2 hPa 0,0 l/m 0 min 0 min 0,0 UV-I 0 W/m 16,4 km/h (3 Bft)
04.09.2014 17:14 24,3 C 22,8 C 69 % 1016,2 hPa 0,0 l/m 0 min 0 min 0,0 UV-I 0 W/m 16,4 km/h (3 Bft)
04.09.2014 17:16 24,3 C 22,2 C 68 % 1016,1 hPa 0,0 l/m 0 min 0 min 0,0 UV-I 0 W/m 13,6 km/h (3 Bft)
04.09.2014 17:18 24,3 C 22,2 C 68 % 1016,2 hPa 0,0 l/m 0 min 0 min 0,0 UV-I 0 W/m 10,9 km/h (2 Bft)
04.09.2014 17:20 24,3 C 22,2 C 68 % 1016,1 hPa 0,0 l/m 0 min 0 min 0,0 UV-I 0 W/m 10,9 km/h (2 Bft)
04.09.2014 17:22 24,3 C 22,2 C 68 % 1016,1 hPa 0,0 l/m 0 min 0 min 0,0 UV-I 0 W/m 13,6 km/h (3 Bft)
04.09.2014 17:24 24,2 C 22,2 C 69 % 1016,1 hPa 0,0 l/m 0 min 0 min 0,0 UV-I 0 W/m 10,9 km/h (2 Bft)
04.09.2014 17:26 24,3 C 22,2 C 69 % 1016,1 hPa 0,0 l/m 0 min 0 min 0,0 UV-I 0 W/m 13,6 km/h (3 Bft)
04.09.2014 17:28 24,3 C 22,2 C 68 % 1016,1 hPa 0,0 l/m 0 min 0 min 0,0 UV-I 0 W/m 19,0 km/h (3 Bft)
04.09.2014 17:30 24,3 C 22,2 C 68 % 1016,1 hPa 0,0 l/m 0 min 0 min 0,0 UV-I 0 W/m 13,6 km/h (3 Bft)
04.09.2014 17:32 24,3 C 22,2 C 68 % 1016,1 hPa 0,0 l/m 0 min 0 min 0,0 UV-I 0 W/m 16,4 km/h (3 Bft)
04.09.2014 17:34 24,3 C 22,8 C 68 % 1016,1 hPa 0,0 l/m 0 min 0 min 0,0 UV-I 0 W/m 13,6 km/h (3 Bft)
04.09.2014 17:36 24,4 C 22,8 C 69 % 1016,1 hPa 0,0 l/m 0 min 0 min 0,0 UV-I 0 W/m 5,5 km/h (1 Bft)
04.09.2014 17:38 24,5 C 22,8 C 68 % 1016,1 hPa 0,0 l/m 0 min 0 min 0,0 UV-I 0 W/m 13,6 km/h (3 Bft)
04.09.2014 17:40 24,5 C 22,8 C 68 % 1016,0 hPa 0,0 l/m 0 min 0 min 0,0 UV-I 0 W/m 13,6 km/h (3 Bft)
04.09.2014 17:42 24,6 C 22,8 C 67 % 1015,9 hPa 0,0 l/m 0 min 0 min 0,0 UV-I 0 W/m 13,6 km/h (3 Bft)
04.09.2014 17:44 24,7 C 22,8 C 68 % 1015,9 hPa 0,0 l/m 0 min 0 min 0,0 UV-I 0 W/m 13,6 km/h (3 Bft)
04.09.2014 17:46 24,7 C 22,8 C 67 % 1015,9 hPa 0,0 l/m 0 min 0 min 0,0 UV-I 0 W/m 8,2 km/h (2 Bft)
04.09.2014 17:48 24,8 C 22,8 C 68 % 1016,0 hPa 0,0 l/m 0 min 0 min 0,0 UV-I 0 W/m 21,7 km/h (4 Bft)
04.09.2014 17:50 24,8 C 22,8 C 67 % 1015,9 hPa 0,0 l/m 0 min 0 min 0,0 UV-I 0 W/m 19,0 km/h (3 Bft)
04.09.2014 17:52 24,9 C 22,8 C 67 % 1015,8 hPa 0,0 l/m 0 min 0 min 0,0 UV-I 0 W/m 13,6 km/h (3 Bft)
04.09.2014 17:54 24,9 C 22,8 C 67 % 1015,8 hPa 0,0 l/m 0 min 0 min 0,0 UV-I 0 W/m 2,7 km/h (1 Bft)
04.09.2014 17:56 24,9 C 22,8 C 67 % 1015,8 hPa 0,0 l/m 0 min 0 min 0,0 UV-I 0 W/m 13,6 km/h (3 Bft)
04.09.2014 17:58 24,9 C 22,8 C 67 % 1015,8 hPa 0,0 l/m 0 min 0 min 0,0 UV-I 0 W/m 8,2 km/h (2 Bft)
04.09.2014 18:00 24,9 C 22,8 C 68 % 1015,8 hPa 0,0 l/m 0 min 0 min 0,0 UV-I 0 W/m 10,9 km/h (2 Bft)
04.09.2014 18:02 24,8 C 22,8 C 67 % 1015,8 hPa 0,0 l/m 0 min 0 min 0,0 UV-I 0 W/m 13,6 km/h (3 Bft)
04.09.2014 18:06 24,8 C 22,2 C 68 % 1015,8 hPa 0,0 l/m 0 min 0 min 0,0 UV-I 0 W/m 13,6 km/h (3 Bft)
04.09.2014 18:08 24,8 C 22,2 C 67 % 1015,8 hPa 0,0 l/m 0 min 0 min 0,0 UV-I 0 W/m 8,2 km/h (2 Bft)
04.09.2014 18:10 24,7 C 22,2 C 68 % 1015,8 hPa 0,0 l/m 0 min 0 min 0,0 UV-I 0 W/m 8,2 km/h (2 Bft)
04.09.2014 18:12 24,7 C 22,2 C 68 % 1015,8 hPa 0,0 l/m 0 min 0 min 0,0 UV-I 0 W/m 8,2 km/h (2 Bft)
04.09.2014 18:14 24,7 C 22,2 C 68 % 1015,8 hPa 0,0 l/m 0 min 0 min 0,0 UV-I 0 W/m 13,6 km/h (3 Bft)
04.09.2014 18:16 24,6 C 22,2 C 68 % 1015,8 hPa 0,0 l/m 0 min 0 min 0,0 UV-I 0 W/m 10,9 km/h (2 Bft)
04.09.2014 18:18 24,6 C 22,2 C 68 % 1015,8 hPa 0,0 l/m 0 min 0 min 0,0 UV-I 0 W/m 5,5 km/h (1 Bft)
04.09.2014 18:20 24,6 C 22,2 C 68 % 1015,7 hPa 0,0 l/m 0 min 0 min 0,0 UV-I 0 W/m 10,9 km/h (2 Bft)
04.09.2014 18:22 24,5 C 22,2 C 68 % 1015,7 hPa 0,0 l/m 0 min 0 min 0,0 UV-I 0 W/m 8,2 km/h (2 Bft)
04.09.2014 18:24 24,5 C 22,2 C 68 % 1015,7 hPa 0,0 l/m 0 min 0 min 0,0 UV-I 0 W/m 0,0 km/h (0 Bft)
04.09.2014 18:26 24,5 C 22,2 C 69 % 1015,7 hPa 0,0 l/m 0 min 0 min 0,0 UV-I 0 W/m 2,7 km/h (1 Bft)
04.09.2014 18:28 24,4 C 22,2 C 69 % 1015,7 hPa 0,0 l/m 0 min 0 min 0,0 UV-I 0 W/m 13,6 km/h (3 Bft)
04.09.2014 18:30 24,4 C 21,7 C 68 % 1015,6 hPa 0,0 l/m 0 min 0 min 0,0 UV-I 0 W/m 5,5 km/h (1 Bft)
04.09.2014 18:32 24,4 C 21,7 C 68 % 1015,6 hPa 0,0 l/m 0 min 0 min 0,0 UV-I 0 W/m 0,0 km/h (0 Bft)
04.09.2014 18:34 24,3 C 21,7 C 69 % 1015,6 hPa 0,0 l/m 0 min 0 min 0,0 UV-I 0 W/m 2,7 km/h (1 Bft)
04.09.2014 18:36 24,3 C 21,7 C 70 % 1015,6 hPa 0,0 l/m 0 min 0 min 0,0 UV-I 0 W/m 10,9 km/h (2 Bft)
04.09.2014 18:38 24,3 C 21,7 C 69 % 1015,6 hPa 0,0 l/m 0 min 0 min 0,0 UV-I 0 W/m 0,0 km/h (0 Bft)
04.09.2014 18:40 24,3 C 21,7 C 70 % 1015,6 hPa 0,0 l/m 0 min 0 min 0,0 UV-I 0 W/m 0,0 km/h (0 Bft)
04.09.2014 18:42 24,3 C 21,7 C 71 % 1015,6 hPa 0,0 l/m 0 min 0 min 0,0 UV-I 0 W/m 0,0 km/h (0 Bft)
04.09.2014 18:44 24,2 C 21,7 C 71 % 1015,6 hPa 0,0 l/m 0 min 0 min 0,0 UV-I 0 W/m 2,7 km/h (1 Bft)
04.09.2014 18:46 24,2 C 21,7 C 71 % 1015,5 hPa 0,0 l/m 0 min 0 min 0,0 UV-I 0 W/m 5,5 km/h (1 Bft)
04.09.2014 18:48 24,2 C 21,7 C 71 % 1015,5 hPa 0,0 l/m 0 min 0 min 0,0 UV-I 0 W/m 8,2 km/h (2 Bft)
04.09.2014 18:50 24,1 C 21,7 C 71 % 1015,5 hPa 0,0 l/m 0 min 0 min 0,0 UV-I 0 W/m 0,0 km/h (0 Bft)
04.09.2014 18:52 24,1 C 21,7 C 71 % 1015,5 hPa 0,0 l/m 0 min 0 min 0,0 UV-I 0 W/m 2,7 km/h (1 Bft)
04.09.2014 18:54 24,1 C 21,7 C 71 % 1015,5 hPa 0,0 l/m 0 min 0 min 0,0 UV-I 0 W/m 0,0 km/h (0 Bft)
04.09.2014 18:56 24,1 C 21,7 C 71 % 1015,5 hPa 0,0 l/m 0 min 0 min 0,0 UV-I 0 W/m 0,0 km/h (0 Bft)
04.09.2014 18:58 24,1 C 21,7 C 71 % 1015,5 hPa 0,0 l/m 0 min 0 min 0,0 UV-I 0 W/m 2,7 km/h (1 Bft)
04.09.2014 19:00 24,1 C 21,1 C 71 % 1015,5 hPa 0,0 l/m 0 min 0 min 0,0 UV-I 0 W/m 0,0 km/h (0 Bft)
04.09.2014 19:02 24,0 C 21,1 C 71 % 1015,5 hPa 0,0 l/m 0 min 0 min 0,0 UV-I 0 W/m 0,0 km/h (0 Bft)
04.09.2014 19:04 24,0 C 21,1 C 71 % 1015,5 hPa 0,0 l/m 0 min 0 min 0,0 UV-I 0 W/m 0,0 km/h (0 Bft)
04.09.2014 19:06 24,0 C 21,1 C 71 % 1015,5 hPa 0,0 l/m 0 min 0 min 0,0 UV-I 0 W/m 10,9 km/h (2 Bft)
04.09.2014 19:08 23,9 C 21,1 C 71 % 1015,5 hPa 0,0 l/m 0 min 0 min 0,0 UV-I 0 W/m 19,0 km/h (3 Bft)
04.09.2014 19:10 23,9 C 21,1 C 71 % 1015,6 hPa 0,0 l/m 0 min 0 min 0,0 UV-I 0 W/m 16,4 km/h (3 Bft)
04.09.2014 19:12 23,9 C 21,1 C 71 % 1015,6 hPa 0,0 l/m 0 min 0 min 0,0 UV-I 0 W/m 13,6 km/h (3 Bft)
04.09.2014 19:14 23,9 C 21,1 C 71 % 1015,6 hPa 0,0 l/m 0 min 0 min 0,0 UV-I 0 W/m 13,6 km/h (3 Bft)
04.09.2014 19:16 23,8 C 21,1 C 71 % 1015,6 hPa 0,0 l/m 0 min 0 min 0,0 UV-I 0 W/m 10,9 km/h (2 Bft)
04.09.2014 19:18 23,8 C 20,6 C 72 % 1015,6 hPa 0,0 l/m 0 min 0 min 0,0 UV-I 0 W/m 8,2 km/h (2 Bft)
04.09.2014 19:20 23,8 C 20,6 C 71 % 1015,6 hPa 0,0 l/m 0 min 0 min 0,0 UV-I 0 W/m 2,7 km/h (1 Bft)
04.09.2014 19:22 23,7 C 20,6 C 71 % 1015,6 hPa 0,0 l/m 0 min 0 min 0,0 UV-I 0 W/m 0,0 km/h (0 Bft)
04.09.2014 19:24 23,7 C 20,6 C 72 % 1015,7 hPa 0,0 l/m 0 min 0 min 0,0 UV-I 0 W/m 2,7 km/h (1 Bft)
04.09.2014 19:26 23,7 C 20,6 C 72 % 1015,7 hPa 0,0 l/m 0 min 0 min 0,0 UV-I 0 W/m 10,9 km/h (2 Bft)
04.09.2014 19:28 23,6 C 20,6 C 72 % 1015,7 hPa 0,0 l/m 0 min 0 min 0,0 UV-I 0 W/m 13,6 km/h (3 Bft)
04.09.2014 19:30 23,6 C 20,6 C 72 % 1015,6 hPa 0,0 l/m 0 min 0 min 0,0 UV-I 0 W/m 13,6 km/h (3 Bft)
04.09.2014 19:32 23,5 C 20,6 C 72 % 1015,7 hPa 0,0 l/m 0 min 0 min 0,0 UV-I 0 W/m 19,0 km/h (3 Bft)
04.09.2014 19:34 23,4 C 20,6 C 72 % 1015,7 hPa 0,0 l/m 0 min 0 min 0,0 UV-I 0 W/m 16,4 km/h (3 Bft)
04.09.2014 19:36 23,4 C 20,6 C 72 % 1015,7 hPa 0,0 l/m 0 min 0 min 0,0 UV-I 0 W/m 24,4 km/h (4 Bft)
04.09.2014 19:38 23,3 C 20,6 C 72 % 1015,7 hPa 0,0 l/m 0 min 0 min 0,0 UV-I 0 W/m 19,0 km/h (3 Bft)
04.09.2014 19:40 23,3 C 20,6 C 72 % 1015,8 hPa 0,0 l/m 0 min 0 min 0,0 UV-I 0 W/m 21,7 km/h (4 Bft)
04.09.2014 19:42 23,2 C 20,6 C 72 % 1015,8 hPa 0,0 l/m 0 min 0 min 0,0 UV-I 0 W/m 19,0 km/h (3 Bft)
04.09.2014 19:44 23,2 C 20,0 C 73 % 1015,8 hPa 0,0 l/m 0 min 0 min 0,0 UV-I 0 W/m 19,0 km/h (3 Bft)
04.09.2014 19:46 23,1 C 20,0 C 73 % 1015,8 hPa 0,0 l/m 0 min 0 min 0,0 UV-I 0 W/m 21,7 km/h (4 Bft)
04.09.2014 19:48 23,1 C 20,0 C 73 % 1015,9 hPa 0,0 l/m 0 min 0 min 0,0 UV-I 0 W/m 21,7 km/h (4 Bft)
04.09.2014 19:50 22,9 C 20,0 C 73 % 1015,9 hPa 0,0 l/m 0 min 0 min 0,0 UV-I 0 W/m 19,0 km/h (3 Bft)
04.09.2014 19:52 22,9 C 20,0 C 73 % 1015,9 hPa 0,0 l/m 0 min 0 min 0,0 UV-I 0 W/m 10,9 km/h (2 Bft)
04.09.2014 19:54 22,8 C 20,0 C 73 % 1015,9 hPa 0,0 l/m 0 min 0 min 0,0 UV-I 0 W/m 24,4 km/h (4 Bft)
04.09.2014 19:56 22,7 C 20,0 C 74 % 1015,9 hPa 0,0 l/m 0 min 0 min 0,0 UV-I 0 W/m 19,0 km/h (3 Bft)
04.09.2014 19:58 22,6 C 20,0 C 74 % 1015,9 hPa 0,0 l/m 0 min 0 min 0,0 UV-I 0 W/m 19,0 km/h (3 Bft)
04.09.2014 20:00 22,6 C 20,0 C 74 % 1015,9 hPa 0,0 l/m 0 min 0 min 0,0 UV-I 0 W/m 16,4 km/h (3 Bft)
04.09.2014 20:02 22,4 C 19,4 C 74 % 1016,0 hPa 0,0 l/m 0 min 0 min 0,0 UV-I 0 W/m 32,6 km/h (5 Bft)
04.09.2014 20:04 22,3 C 19,4 C 74 % 1016,0 hPa 0,0 l/m 0 min 0 min 0,0 UV-I 0 W/m 29,9 km/h (5 Bft)
04.09.2014 20:06 22,2 C 19,4 C 74 % 1015,9 hPa 0,0 l/m 0 min 0 min 0,0 UV-I 0 W/m 19,0 km/h (3 Bft)
04.09.2014 20:08 22,2 C 19,4 C 74 % 1015,9 hPa 0,0 l/m 0 min 0 min 0,0 UV-I 0 W/m 24,4 km/h (4 Bft)
04.09.2014 20:10 22,1 C 19,4 C 74 % 1016,1 hPa 0,0 l/m 0 min 0 min 0,0 UV-I 0 W/m 38,1 km/h (5 Bft)
04.09.2014 20:12 21,9 C 19,4 C 74 % 1016,1 hPa 0,0 l/m 0 min 0 min 0,0 UV-I 0 W/m 35,4 km/h (5 Bft)
04.09.2014 20:14 21,8 C 18,9 C 74 % 1016,1 hPa 0,0 l/m 0 min 0 min 0,0 UV-I 0 W/m 24,4 km/h (4 Bft)
04.09.2014 20:16 21,7 C 18,9 C 74 % 1016,1 hPa 0,0 l/m 0 min 0 min 0,0 UV-I 0 W/m 24,4 km/h (4 Bft)
04.09.2014 20:18 21,7 C 18,9 C 75 % 1016,2 hPa 0,0 l/m 0 min 0 min 0,0 UV-I 0 W/m 24,4 km/h (4 Bft)
04.09.2014 20:20 21,6 C 18,9 C 75 % 1016,2 hPa 0,0 l/m 0 min 0 min 0,0 UV-I 0 W/m 24,4 km/h (4 Bft)
04.09.2014 20:22 21,5 C 18,9 C 75 % 1016,2 hPa 0,0 l/m 0 min 0 min 0,0 UV-I 0 W/m 40,8 km/h (6 Bft)
04.09.2014 20:24 21,4 C 18,9 C 75 % 1016,2 hPa 0,0 l/m 0 min 0 min 0,0 UV-I 0 W/m 32,6 km/h (5 Bft)
04.09.2014 20:26 21,4 C 18,9 C 76 % 1016,2 hPa 0,0 l/m 0 min 0 min 0,0 UV-I 0 W/m 24,4 km/h (4 Bft)
04.09.2014 20:28 21,3 C 18,9 C 75 % 1016,2 hPa 0,0 l/m 0 min 0 min 0,0 UV-I 0 W/m 29,9 km/h (5 Bft)
04.09.2014 20:30 21,2 C 18,9 C 75 % 1016,2 hPa 0,0 l/m 0 min 0 min 0,0 UV-I 0 W/m 29,9 km/h (5 Bft)
04.09.2014 20:32 21,1 C 18,3 C 76 % 1016,2 hPa 0,0 l/m 0 min 0 min 0,0 UV-I 0 W/m 29,9 km/h (5 Bft)
04.09.2014 20:34 21,0 C 18,3 C 76 % 1016,3 hPa 0,0 l/m 0 min 0 min 0,0 UV-I 0 W/m 32,6 km/h (5 Bft)
04.09.2014 20:36 20,9 C 18,3 C 76 % 1016,3 hPa 0,0 l/m 0 min 0 min 0,0 UV-I 0 W/m 24,4 km/h (4 Bft)
04.09.2014 20:38 20,9 C 18,3 C 76 % 1016,3 hPa 0,0 l/m 0 min 0 min 0,0 UV-I 0 W/m 21,7 km/h (4 Bft)
04.09.2014 20:40 20,8 C 18,3 C 76 % 1016,3 hPa 0,0 l/m 0 min 0 min 0,0 UV-I 0 W/m 21,7 km/h (4 Bft)
04.09.2014 20:42 20,7 C 18,3 C 77 % 1016,3 hPa 0,0 l/m 0 min 0 min 0,0 UV-I 0 W/m 27,2 km/h (4 Bft)
04.09.2014 20:44 20,6 C 17,8 C 77 % 1016,4 hPa 0,0 l/m 0 min 0 min 0,0 UV-I 0 W/m 27,2 km/h (4 Bft)
04.09.2014 20:46 20,6 C 17,8 C 77 % 1016,4 hPa 0,0 l/m 0 min 0 min 0,0 UV-I 0 W/m 29,9 km/h (5 Bft)
04.09.2014 20:48 20,5 C 17,8 C 77 % 1016,4 hPa 0,0 l/m 0 min 0 min 0,0 UV-I 0 W/m 21,7 km/h (4 Bft)
04.09.2014 20:50 20,4 C 17,8 C 77 % 1016,4 hPa 0,0 l/m 0 min 0 min 0,0 UV-I 0 W/m 27,2 km/h (4 Bft)
04.09.2014 20:52 20,4 C 17,8 C 77 % 1016,4 hPa 0,0 l/m 0 min 0 min 0,0 UV-I 0 W/m 13,6 km/h (3 Bft)
04.09.2014 20:54 20,3 C 17,8 C 77 % 1016,5 hPa 0,0 l/m 0 min 0 min 0,0 UV-I 0 W/m 16,4 km/h (3 Bft)
04.09.2014 20:56 20,3 C 17,8 C 78 % 1016,5 hPa 0,0 l/m 0 min 0 min 0,0 UV-I 0 W/m 24,4 km/h (4 Bft)
04.09.2014 20:58 20,2 C 18,3 C 78 % 1016,5 hPa 0,0 l/m 0 min 0 min 0,0 UV-I 0 W/m 19,0 km/h (3 Bft)
04.09.2014 21:00 20,2 C 18,3 C 78 % 1016,5 hPa 0,0 l/m 0 min 0 min 0,0 UV-I 0 W/m 16,4 km/h (3 Bft)
04.09.2014 21:02 20,2 C 18,3 C 78 % 1016,5 hPa 0,0 l/m 0 min 0 min 0,0 UV-I 0 W/m 19,0 km/h (3 Bft)
04.09.2014 21:04 20,1 C 18,3 C 78 % 1016,6 hPa 0,0 l/m 0 min 0 min 0,0 UV-I 0 W/m 19,0 km/h (3 Bft)
04.09.2014 21:06 20,1 C 18,3 C 78 % 1016,5 hPa 0,0 l/m 0 min 0 min 0,0 UV-I 0 W/m 24,4 km/h (4 Bft)
04.09.2014 21:08 20,1 C 17,8 C 78 % 1016,6 hPa 0,0 l/m 0 min 0 min 0,0 UV-I 0 W/m 24,4 km/h (4 Bft)
04.09.2014 21:10 20,1 C 17,8 C 78 % 1016,5 hPa 0,0 l/m 0 min 0 min 0,0 UV-I 0 W/m 29,9 km/h (5 Bft)
04.09.2014 21:12 20,0 C 17,8 C 78 % 1016,5 hPa 0,0 l/m 0 min 0 min 0,0 UV-I 0 W/m 21,7 km/h (4 Bft)
04.09.2014 21:14 19,9 C 17,8 C 79 % 1016,5 hPa 0,0 l/m 0 min 0 min 0,0 UV-I 0 W/m 13,6 km/h (3 Bft)
04.09.2014 21:16 19,9 C 17,8 C 79 % 1016,6 hPa 0,0 l/m 0 min 0 min 0,0 UV-I 0 W/m 16,4 km/h (3 Bft)
04.09.2014 21:18 19,9 C 17,8 C 79 % 1016,5 hPa 0,0 l/m 0 min 0 min 0,0 UV-I 0 W/m 13,6 km/h (3 Bft)
04.09.2014 21:20 19,9 C 17,8 C 79 % 1016,5 hPa 0,0 l/m 0 min 0 min 0,0 UV-I 0 W/m 16,4 km/h (3 Bft)
04.09.2014 21:22 19,8 C 17,8 C 79 % 1016,6 hPa 0,0 l/m 0 min 0 min 0,0 UV-I 0 W/m 16,4 km/h (3 Bft)
04.09.2014 21:24 19,8 C 17,8 C 79 % 1016,6 hPa 0,0 l/m 0 min 0 min 0,0 UV-I 0 W/m 10,9 km/h (2 Bft)
04.09.2014 21:26 19,8 C 17,8 C 79 % 1016,6 hPa 0,0 l/m 0 min 0 min 0,0 UV-I 0 W/m 21,7 km/h (4 Bft)
04.09.2014 21:28 19,8 C 17,8 C 79 % 1016,6 hPa 0,0 l/m 0 min 0 min 0,0 UV-I 0 W/m 19,0 km/h (3 Bft)
04.09.2014 21:30 19,8 C 17,8 C 80 % 1016,5 hPa 0,0 l/m 0 min 0 min 0,0 UV-I 0 W/m 13,6 km/h (3 Bft)
04.09.2014 21:32 19,8 C 17,8 C 80 % 1016,5 hPa 0,0 l/m 0 min 0 min 0,0 UV-I 0 W/m 5,5 km/h (1 Bft)
04.09.2014 21:34 19,7 C 17,8 C 79 % 1016,5 hPa 0,0 l/m 0 min 0 min 0,0 UV-I 0 W/m 0,0 km/h (0 Bft)
04.09.2014 21:36 19,7 C 17,8 C 79 % 1016,5 hPa 0,0 l/m 0 min 0 min 0,0 UV-I 0 W/m 10,9 km/h (2 Bft)
04.09.2014 21:38 19,7 C 17,8 C 80 % 1016,5 hPa 0,0 l/m 0 min 0 min 0,0 UV-I 0 W/m 13,6 km/h (3 Bft)
04.09.2014 21:40 19,7 C 17,8 C 80 % 1016,5 hPa 0,0 l/m 0 min 0 min 0,0 UV-I 0 W/m 0,0 km/h (0 Bft)
04.09.2014 21:42 19,7 C 17,8 C 80 % 1016,5 hPa 0,0 l/m 0 min 0 min 0,0 UV-I 0 W/m 2,7 km/h (1 Bft)
04.09.2014 21:44 19,7 C 17,8 C 80 % 1016,5 hPa 0,0 l/m 0 min 0 min 0,0 UV-I 0 W/m 0,0 km/h (0 Bft)
04.09.2014 21:46 19,7 C 17,8 C 80 % 1016,5 hPa 0,0 l/m 0 min 0 min 0,0 UV-I 0 W/m 0,0 km/h (0 Bft)
04.09.2014 21:48 19,7 C 17,8 C 80 % 1016,5 hPa 0,0 l/m 0 min 0 min 0,0 UV-I 0 W/m 0,0 km/h (0 Bft)
04.09.2014 21:50 19,7 C 17,8 C 80 % 1016,5 hPa 0,0 l/m 0 min 0 min 0,0 UV-I 0 W/m 0,0 km/h (0 Bft)
04.09.2014 21:52 19,6 C 17,8 C 80 % 1016,6 hPa 0,0 l/m 0 min 0 min 0,0 UV-I 0 W/m 0,0 km/h (0 Bft)
04.09.2014 21:54 19,6 C 17,8 C 80 % 1016,5 hPa 0,0 l/m 0 min 0 min 0,0 UV-I 0 W/m 0,0 km/h (0 Bft)
04.09.2014 21:56 19,6 C 17,2 C 80 % 1016,5 hPa 0,0 l/m 0 min 0 min 0,0 UV-I 0 W/m 0,0 km/h (0 Bft)
04.09.2014 21:58 19,6 C 17,2 C 80 % 1016,5 hPa 0,0 l/m 0 min 0 min 0,0 UV-I 0 W/m 0,0 km/h (0 Bft)
04.09.2014 22:00 19,6 C 17,2 C 80 % 1016,5 hPa 0,0 l/m 0 min 0 min 0,0 UV-I 0 W/m 0,0 km/h (0 Bft)
04.09.2014 22:02 19,6 C 17,2 C 80 % 1016,5 hPa 0,0 l/m 0 min 0 min 0,0 UV-I 0 W/m 0,0 km/h (0 Bft)
04.09.2014 22:04 19,6 C 17,2 C 80 % 1016,5 hPa 0,0 l/m 0 min 0 min 0,0 UV-I 0 W/m 0,0 km/h (0 Bft)
04.09.2014 22:06 19,5 C 17,2 C 80 % 1016,5 hPa 0,0 l/m 0 min 0 min 0,0 UV-I 0 W/m 0,0 km/h (0 Bft)
04.09.2014 22:08 19,5 C 17,2 C 80 % 1016,4 hPa 0,0 l/m 0 min 0 min 0,0 UV-I 0 W/m 0,0 km/h (0 Bft)
04.09.2014 22:10 19,5 C 17,2 C 81 % 1016,4 hPa 0,0 l/m 0 min 0 min 0,0 UV-I 0 W/m 0,0 km/h (0 Bft)
04.09.2014 22:12 19,5 C 17,2 C 81 % 1016,4 hPa 0,0 l/m 0 min 0 min 0,0 UV-I 0 W/m 0,0 km/h (0 Bft)
04.09.2014 22:14 19,5 C 17,2 C 81 % 1016,3 hPa 0,0 l/m 0 min 0 min 0,0 UV-I 0 W/m 0,0 km/h (0 Bft)
04.09.2014 22:16 19,4 C 17,2 C 81 % 1016,4 hPa 0,0 l/m 0 min 0 min 0,0 UV-I 0 W/m 0,0 km/h (0 Bft)
04.09.2014 22:18 19,4 C 17,2 C 81 % 1016,4 hPa 0,0 l/m 0 min 0 min 0,0 UV-I 0 W/m 0,0 km/h (0 Bft)
04.09.2014 22:20 19,4 C 17,2 C 81 % 1016,4 hPa 0,0 l/m 0 min 0 min 0,0 UV-I 0 W/m 0,0 km/h (0 Bft)
04.09.2014 22:21 19,4 C 17,2 C 81 % 1016,4 hPa 0,0 l/m 0 min 0 min 0,0 UV-I 0 W/m 0,0 km/h (0 Bft)
04.09.2014 22:22 19,4 C 17,2 C 81 % 1016,4 hPa 0,0 l/m 0 min 0 min 0,0 UV-I 0 W/m 0,0 km/h (0 Bft)
04.09.2014 22:23 19,4 C 17,2 C 81 % 1016,4 hPa 0,0 l/m 0 min 0 min 0,0 UV-I 0 W/m 0,0 km/h (0 Bft)
04.09.2014 22:26 19,4 C 17,2 C 81 % 1016,4 hPa 0,0 l/m 0 min 0 min 0,0 UV-I 0 W/m 0,0 km/h (0 Bft)
04.09.2014 22:28 19,4 C 17,2 C 81 % 1016,3 hPa 0,0 l/m 0 min 0 min 0,0 UV-I 0 W/m 0,0 km/h (0 Bft)
04.09.2014 22:30 19,4 C 17,2 C 81 % 1016,3 hPa 0,0 l/m 0 min 0 min 0,0 UV-I 0 W/m 0,0 km/h (0 Bft)
04.09.2014 22:32 19,4 C 16,7 C 81 % 1016,2 hPa 0,0 l/m 0 min 0 min 0,0 UV-I 0 W/m 0,0 km/h (0 Bft)
04.09.2014 22:34 19,3 C 16,7 C 81 % 1016,2 hPa 0,0 l/m 0 min 0 min 0,0 UV-I 0 W/m 0,0 km/h (0 Bft)
04.09.2014 22:36 19,3 C 16,7 C 81 % 1016,3 hPa 0,0 l/m 0 min 0 min 0,0 UV-I 0 W/m 0,0 km/h (0 Bft)
04.09.2014 22:38 19,3 C 16,7 C 81 % 1016,3 hPa 0,0 l/m 0 min 0 min 0,0 UV-I 0 W/m 0,0 km/h (0 Bft)
04.09.2014 22:40 19,3 C 16,7 C 82 % 1016,3 hPa 0,0 l/m 0 min 0 min 0,0 UV-I 0 W/m 0,0 km/h (0 Bft)
04.09.2014 22:42 19,3 C 16,7 C 82 % 1016,3 hPa 0,0 l/m 0 min 0 min 0,0 UV-I 0 W/m 0,0 km/h (0 Bft)
04.09.2014 22:44 19,3 C 16,7 C 82 % 1016,3 hPa 0,0 l/m 0 min 0 min 0,0 UV-I 0 W/m 0,0 km/h (0 Bft)
04.09.2014 22:46 19,2 C 16,7 C 82 % 1016,4 hPa 0,0 l/m 0 min 0 min 0,0 UV-I 0 W/m 0,0 km/h (0 Bft)
04.09.2014 22:48 19,2 C 16,7 C 82 % 1016,3 hPa 0,0 l/m 0 min 0 min 0,0 UV-I 0 W/m 0,0 km/h (0 Bft)
04.09.2014 22:50 19,2 C 16,1 C 82 % 1016,3 hPa 0,0 l/m 0 min 0 min 0,0 UV-I 0 W/m 0,0 km/h (0 Bft)
04.09.2014 22:52 19,2 C 16,1 C 82 % 1016,3 hPa 0,0 l/m 0 min 0 min 0,0 UV-I 0 W/m 0,0 km/h (0 Bft)
04.09.2014 22:54 19,2 C 16,1 C 82 % 1016,4 hPa 0,0 l/m 0 min 0 min 0,0 UV-I 0 W/m 0,0 km/h (0 Bft)
04.09.2014 22:56 19,1 C 16,1 C 82 % 1016,3 hPa 0,0 l/m 0 min 0 min 0,0 UV-I 0 W/m 0,0 km/h (0 Bft)
04.09.2014 22:58 19,1 C 16,1 C 82 % 1016,3 hPa 0,0 l/m 0 min 0 min 0,0 UV-I 0 W/m 0,0 km/h (0 Bft)
04.09.2014 23:00 19,1 C 16,1 C 82 % 1016,4 hPa 0,0 l/m 0 min 0 min 0,0 UV-I 0 W/m 0,0 km/h (0 Bft)
04.09.2014 23:02 19,0 C 16,1 C 83 % 1016,3 hPa 0,0 l/m 0 min 0 min 0,0 UV-I 0 W/m 0,0 km/h (0 Bft)
04.09.2014 23:04 19,0 C 15,6 C 83 % 1016,3 hPa 0,0 l/m 0 min 0 min 0,0 UV-I 0 W/m 0,0 km/h (0 Bft)
04.09.2014 23:06 19,0 C 15,6 C 83 % 1016,3 hPa 0,0 l/m 0 min 0 min 0,0 UV-I 0 W/m 0,0 km/h (0 Bft)
04.09.2014 23:08 18,9 C 15,6 C 83 % 1016,3 hPa 0,0 l/m 0 min 0 min 0,0 UV-I 0 W/m 0,0 km/h (0 Bft)
04.09.2014 23:10 18,9 C 15,6 C 83 % 1016,3 hPa 0,0 l/m 0 min 0 min 0,0 UV-I 0 W/m 0,0 km/h (0 Bft)
04.09.2014 23:12 18,9 C 15,6 C 84 % 1016,3 hPa 0,0 l/m 0 min 0 min 0,0 UV-I 0 W/m 0,0 km/h (0 Bft)
04.09.2014 23:14 18,8 C 15,6 C 84 % 1016,4 hPa 0,0 l/m 0 min 0 min 0,0 UV-I 0 W/m 0,0 km/h (0 Bft)
04.09.2014 23:16 18,8 C 15,6 C 84 % 1016,4 hPa 0,0 l/m 0 min 0 min 0,0 UV-I 0 W/m 0,0 km/h (0 Bft)
04.09.2014 23:18 18,8 C 15,6 C 84 % 1016,3 hPa 0,0 l/m 0 min 0 min 0,0 UV-I 0 W/m 0,0 km/h (0 Bft)
04.09.2014 23:20 18,7 C 15,6 C 84 % 1016,3 hPa 0,0 l/m 0 min 0 min 0,0 UV-I 0 W/m 0,0 km/h (0 Bft)
04.09.2014 23:22 18,7 C 15,6 C 84 % 1016,2 hPa 0,0 l/m 0 min 0 min 0,0 UV-I 0 W/m 0,0 km/h (0 Bft)
04.09.2014 23:24 18,6 C 15,6 C 84 % 1016,2 hPa 0,0 l/m 0 min 0 min 0,0 UV-I 0 W/m 0,0 km/h (0 Bft)
04.09.2014 23:26 18,6 C 15,6 C 84 % 1016,2 hPa 0,0 l/m 0 min 0 min 0,0 UV-I 0 W/m 0,0 km/h (0 Bft)
04.09.2014 23:28 18,5 C 15,6 C 84 % 1016,2 hPa 0,0 l/m 0 min 0 min 0,0 UV-I 0 W/m 0,0 km/h (0 Bft)
04.09.2014 23:30 18,4 C 15,6 C 84 % 1016,1 hPa 0,0 l/m 0 min 0 min 0,0 UV-I 0 W/m 0,0 km/h (0 Bft)
04.09.2014 23:32 18,4 C 15,6 C 84 % 1016,2 hPa 0,0 l/m 0 min 0 min 0,0 UV-I 0 W/m 0,0 km/h (0 Bft)
04.09.2014 23:34 18,4 C 15,6 C 84 % 1016,2 hPa 0,0 l/m 0 min 0 min 0,0 UV-I 0 W/m 0,0 km/h (0 Bft)
04.09.2014 23:36 18,3 C 15,6 C 84 % 1016,1 hPa 0,0 l/m 0 min 0 min 0,0 UV-I 0 W/m 0,0 km/h (0 Bft)
04.09.2014 23:38 18,3 C 15,6 C 85 % 1016,0 hPa 0,0 l/m 0 min 0 min 0,0 UV-I 0 W/m 0,0 km/h (0 Bft)
04.09.2014 23:40 18,2 C 15,6 C 85 % 1016,0 hPa 0,0 l/m 0 min 0 min 0,0 UV-I 0 W/m 0,0 km/h (0 Bft)
04.09.2014 23:42 18,2 C 15,0 C 85 % 1016,0 hPa 0,0 l/m 0 min 0 min 0,0 UV-I 0 W/m 0,0 km/h (0 Bft)
04.09.2014 23:44 18,1 C 15,0 C 85 % 1016,1 hPa 0,0 l/m 0 min 0 min 0,0 UV-I 0 W/m 0,0 km/h (0 Bft)
04.09.2014 23:46 18,1 C 15,0 C 85 % 1016,1 hPa 0,0 l/m 0 min 0 min 0,0 UV-I 0 W/m 0,0 km/h (0 Bft)
04.09.2014 23:48 18,1 C 15,0 C 85 % 1016,1 hPa 0,0 l/m 0 min 0 min 0,0 UV-I 0 W/m 0,0 km/h (0 Bft)
04.09.2014 23:50 18,0 C 15,0 C 85 % 1016,0 hPa 0,0 l/m 0 min 0 min 0,0 UV-I 0 W/m 0,0 km/h (0 Bft)
04.09.2014 23:52 17,9 C 15,0 C 85 % 1015,9 hPa 0,0 l/m 0 min 0 min 0,0 UV-I 0 W/m 0,0 km/h (0 Bft)
04.09.2014 23:54 17,9 C 15,0 C 86 % 1015,9 hPa 0,0 l/m 0 min 0 min 0,0 UV-I 0 W/m 0,0 km/h (0 Bft)
04.09.2014 23:56 17,9 C 15,6 C 86 % 1015,9 hPa 0,0 l/m 0 min 0 min 0,0 UV-I 0 W/m 0,0 km/h (0 Bft)
04.09.2014 23:58 17,9 C 15,0 C 86 % 1015,9 hPa 0,0 l/m 0 min 0 min 0,0 UV-I 0 W/m 2,7 km/h (1 Bft)
_ Min-Zeit 07:18 06:38 16:46 18:46 - - - - - 00:00
Minimum _ 13,1 C 11,1 C 64 % 1015,5 hPa - - - - - 0,0 km/h (0 Bft)
_ Max-Zeit 16:44 15:28 08:28 00:00 00:00 00:00 00:00 00:00 00:00 20:22
Maximum _ 25,1 C 23,3 C 95 % 1020,8 hPa 0,0 l/m 0 min 0 min 0,0 UV-I 0 W/m 40,8 km/h
N (6 Bft)
Durchschnitt _ 19,4 C 17,6 C 80 % 1018,1 hPa #0,0 l/m #0 min. #0 min. 0,0 UV-I 0 W/m 9,2 km/h (2 Bft)
© 2014 W. Hausmann